Time,TemperatureF,DewpointF,PressureIn,WindDirection,WindDirectionDegrees,WindSpeedMPH,WindSpeedGustMPH,Humidity,HourlyPrecipIn,Conditions,Clouds,dailyrainin,SoftwareType,DateUTC
2013-04-13 00:00:00,37.4,34.7,29.87,SE,135,1.2,1.2,90,0.00,CLR,,0.31,WeatherDisplay:10.37,2013-04-13 04:00:00,
2013-04-13 00:05:00,37.0,34.4,29.89,ENE,68,0.0,0.2,90,0.00,RA,,0.00,WeatherDisplay:10.37,2013-04-13 04:05:00,
2013-04-13 00:10:00,37.0,34.4,29.89,ENE,68,0.0,0.2,90,0.00,CLR,,0.00,WeatherDisplay:10.37,2013-04-13 04:10:00,
2013-04-13 00:15:00,37.0,34.4,29.89,ENE,68,0.0,0.2,90,0.00,CLR,,0.00,WeatherDisplay:10.37,2013-04-13 04:15:00,
2013-04-13 00:20:00,37.0,34.4,29.89,ENE,68,0.0,0.2,90,0.00,CLR,,0.00,WeatherDisplay:10.37,2013-04-13 04:20:00,
2013-04-13 00:25:00,37.0,34.4,29.89,ENE,68,0.0,0.2,90,0.00,CLR,,0.00,WeatherDisplay:10.37,2013-04-13 04:25:00,
2013-04-13 00:26:00,37.0,34.4,29.89,ENE,68,0.0,0.2,90,0.00,CLR,,0.00,WeatherDisplay:10.37,2013-04-13 04:26:00,
2013-04-13 00:30:00,37.0,34.4,29.89,ENE,68,0.0,0.2,90,0.00,CLR,,0.00,WeatherDisplay:10.37,2013-04-13 04:30:00,
2013-04-13 00:31:00,37.0,34.4,29.90,SE,135,1.2,1.2,90,0.01,RA,,0.01,WeatherDisplay:10.37,2013-04-13 04:31:00,
2013-04-13 00:32:00,37.0,34.4,29.90,SE,135,1.2,1.2,90,0.01,RA,,0.01,WeatherDisplay:10.37,2013-04-13 04:32:00,
2013-04-13 00:35:00,37.0,34.4,29.90,SE,135,1.2,1.2,90,0.01,RA,,0.01,WeatherDisplay:10.37,2013-04-13 04:35:00,
2013-04-13 00:36:00,37.0,34.4,29.90,SE,135,1.2,1.2,90,0.01,RA,,0.01,WeatherDisplay:10.37,2013-04-13 04:36:00,
2013-04-13 00:37:00,37.0,34.4,29.90,SE,135,1.2,1.2,90,0.01,RA,,0.01,WeatherDisplay:10.37,2013-04-13 04:37:00,
2013-04-13 00:40:00,37.0,34.4,29.90,SE,135,1.2,1.2,90,0.01,RA,,0.01,WeatherDisplay:10.37,2013-04-13 04:40:00,
2013-04-13 00:41:00,37.0,34.4,29.90,SE,135,1.2,1.2,90,0.01,,,0.01,WeatherDisplay:10.37,2013-04-13 04:41:00,
2013-04-13 00:42:00,37.0,34.4,29.90,SE,135,1.2,1.2,90,0.01,,,0.01,WeatherDisplay:10.37,2013-04-13 04:42:00,
2013-04-13 00:45:00,37.0,34.4,29.90,SE,135,1.2,1.2,90,0.01,CLR,,0.01,WeatherDisplay:10.37,2013-04-13 04:45:00,
2013-04-13 00:46:00,37.0,34.4,29.90,SE,135,1.2,1.2,90,0.01,CLR,,0.01,WeatherDisplay:10.37,2013-04-13 04:46:00,
2013-04-13 00:47:00,37.0,34.4,29.90,SE,135,1.2,1.2,90,0.01,CLR,,0.01,WeatherDisplay:10.37,2013-04-13 04:47:00,
2013-04-13 00:50:00,37.0,34.4,29.90,SE,135,1.2,1.2,90,0.01,CLR,,0.01,WeatherDisplay:10.37,2013-04-13 04:50:00,
2013-04-13 00:51:00,37.0,34.4,29.90,SE,135,1.2,1.2,90,0.01,CLR,,0.01,WeatherDisplay:10.37,2013-04-13 04:51:00,
2013-04-13 00:52:00,37.0,34.4,29.90,SE,135,1.2,1.2,90,0.01,CLR,,0.01,WeatherDisplay:10.37,2013-04-13 04:52:00,
2013-04-13 00:56:00,37.0,34.4,29.90,SE,135,1.2,1.2,90,0.01,CLR,,0.01,WeatherDisplay:10.37,2013-04-13 04:56:00,
2013-04-13 00:57:00,37.0,34.4,29.90,SE,135,1.2,1.2,90,0.01,CLR,,0.01,WeatherDisplay:10.37,2013-04-13 04:57:00,
2013-04-13 01:01:00,37.0,34.4,29.89,SSE,158,1.2,1.2,90,0.03,RA,,0.03,WeatherDisplay:10.37,2013-04-13 05:01:00,
2013-04-13 01:02:00,37.0,34.4,29.89,SSE,158,1.2,1.2,90,0.03,RA,,0.03,WeatherDisplay:10.37,2013-04-13 05:02:00,
2013-04-13 01:06:00,37.0,34.4,29.89,SSE,158,1.2,1.2,90,0.03,RA,,0.03,WeatherDisplay:10.37,2013-04-13 05:06:00,
2013-04-13 01:07:00,37.0,34.4,29.89,SSE,158,1.2,1.2,90,0.03,RA,,0.03,WeatherDisplay:10.37,2013-04-13 05:07:00,
2013-04-13 01:08:00,37.0,34.4,29.89,SSE,158,1.2,1.2,90,0.03,RA,,0.03,WeatherDisplay:10.37,2013-04-13 05:08:00,
2013-04-13 01:12:00,37.0,34.4,29.89,SSE,158,1.2,1.2,90,0.03,,,0.03,WeatherDisplay:10.37,2013-04-13 05:12:00,
2013-04-13 01:13:00,37.0,34.4,29.89,SSE,158,1.2,1.2,90,0.03,CLR,,0.03,WeatherDisplay:10.37,2013-04-13 05:13:00,
2013-04-13 01:17:00,37.0,34.4,29.89,SSE,158,1.2,1.2,90,0.03,CLR,,0.03,WeatherDisplay:10.37,2013-04-13 05:17:00,
2013-04-13 01:18:00,37.0,34.4,29.89,SSE,158,1.2,1.2,90,0.03,CLR,,0.03,WeatherDisplay:10.37,2013-04-13 05:18:00,
2013-04-13 01:22:00,37.0,34.4,29.89,SSE,158,1.2,1.2,90,0.03,CLR,,0.03,WeatherDisplay:10.37,2013-04-13 05:22:00,
2013-04-13 01:23:00,37.0,34.4,29.89,SSE,158,1.2,1.2,90,0.03,CLR,,0.03,WeatherDisplay:10.37,2013-04-13 05:23:00,
2013-04-13 01:27:00,37.0,34.4,29.89,SSE,158,1.2,1.2,90,0.03,CLR,,0.03,WeatherDisplay:10.37,2013-04-13 05:27:00,
2013-04-13 01:28:00,37.0,34.4,29.89,SSE,158,1.2,1.2,90,0.03,CLR,,0.03,WeatherDisplay:10.37,2013-04-13 05:28:00,
2013-04-13 01:32:00,37.2,34.3,29.85,South,180,0.5,0.5,89,0.03,RA,,0.04,WeatherDisplay:10.37,2013-04-13 05:32:00,
2013-04-13 01:33:00,37.2,34.3,29.85,South,180,0.0,0.5,89,0.03,RA,,0.04,WeatherDisplay:10.37,2013-04-13 05:33:00,
2013-04-13 01:34:00,37.2,34.3,29.85,South,180,0.0,0.5,89,0.03,RA,,0.04,WeatherDisplay:10.37,2013-04-13 05:34:00,
2013-04-13 01:37:00,37.2,34.3,29.85,South,180,0.0,0.5,89,0.03,RA,,0.04,WeatherDisplay:10.37,2013-04-13 05:37:00,
2013-04-13 01:38:00,37.2,34.3,29.85,South,180,0.0,0.5,89,0.03,RA,,0.04,WeatherDisplay:10.37,2013-04-13 05:38:00,
2013-04-13 01:39:00,37.2,34.3,29.85,South,180,0.0,0.5,89,0.03,RA,,0.04,WeatherDisplay:10.37,2013-04-13 05:39:00,
2013-04-13 01:43:00,37.2,34.3,29.85,South,180,0.0,0.5,89,0.03,CLR,,0.04,WeatherDisplay:10.37,2013-04-13 05:43:00,
2013-04-13 01:44:00,37.2,34.3,29.85,South,180,0.0,0.5,89,0.03,CLR,,0.04,WeatherDisplay:10.37,2013-04-13 05:44:00,
2013-04-13 01:48:00,37.2,34.3,29.85,South,180,0.0,0.5,89,0.03,CLR,,0.04,WeatherDisplay:10.37,2013-04-13 05:48:00,
2013-04-13 01:49:00,37.2,34.3,29.85,South,180,0.0,0.5,89,0.03,CLR,,0.04,WeatherDisplay:10.37,2013-04-13 05:49:00,
2013-04-13 01:53:00,37.2,34.3,29.85,South,180,0.0,0.5,89,0.03,CLR,,0.04,WeatherDisplay:10.37,2013-04-13 05:53:00,
2013-04-13 01:54:00,37.2,34.3,29.85,South,180,0.0,0.5,89,0.03,CLR,,0.04,WeatherDisplay:10.37,2013-04-13 05:54:00,
2013-04-13 01:58:00,37.2,34.3,29.85,South,180,0.0,0.5,89,0.03,CLR,,0.04,WeatherDisplay:10.37,2013-04-13 05:58:00,
2013-04-13 01:59:00,37.2,34.3,29.85,South,180,0.0,0.5,89,0.03,CLR,,0.04,WeatherDisplay:10.37,2013-04-13 05:59:00,
2013-04-13 02:00:00,37.2,34.3,29.85,South,180,0.0,0.0,89,0.00,CLR,CLR,0.04,WeatherDisplay:10.37,2013-04-13 06:00:00,
2013-04-13 02:03:00,37.0,34.1,29.88,NNE,22,0.2,0.2,89,0.02,RA,,0.05,WeatherDisplay:10.37,2013-04-13 06:03:00,
2013-04-13 02:04:00,37.0,34.1,29.88,NNE,22,0.0,0.2,89,0.02,RA,,0.05,WeatherDisplay:10.37,2013-04-13 06:04:00,
2013-04-13 02:05:00,37.0,34.1,29.88,NNE,22,0.0,0.2,89,0.02,RA,,0.05,WeatherDisplay:10.37,2013-04-13 06:05:00,
2013-04-13 02:08:00,37.0,34.1,29.88,NNE,22,0.0,0.2,89,0.02,RA,,0.05,WeatherDisplay:10.37,2013-04-13 06:08:00,
2013-04-13 02:09:00,37.0,34.1,29.88,NNE,22,0.0,0.2,89,0.02,RA,,0.05,WeatherDisplay:10.37,2013-04-13 06:09:00,
2013-04-13 02:10:00,37.0,34.1,29.88,NNE,22,0.0,0.2,89,0.02,RA,,0.05,WeatherDisplay:10.37,2013-04-13 06:10:00,
2013-04-13 02:14:00,37.0,34.1,29.88,NNE,22,0.0,0.2,89,0.02,CLR,,0.05,WeatherDisplay:10.37,2013-04-13 06:14:00,
2013-04-13 02:15:00,37.0,34.1,29.88,NNE,22,0.0,0.2,89,0.02,CLR,,0.05,WeatherDisplay:10.37,2013-04-13 06:15:00,
2013-04-13 02:19:00,37.0,34.1,29.88,NNE,22,0.0,0.2,89,0.02,CLR,,0.05,WeatherDisplay:10.37,2013-04-13 06:19:00,
2013-04-13 02:20:00,37.0,34.1,29.88,NNE,22,0.0,0.2,89,0.02,CLR,,0.05,WeatherDisplay:10.37,2013-04-13 06:20:00,
2013-04-13 02:24:00,37.0,34.1,29.88,NNE,22,0.0,0.2,89,0.02,CLR,,0.05,WeatherDisplay:10.37,2013-04-13 06:24:00,
2013-04-13 02:26:00,37.0,34.1,29.88,NNE,22,0.0,0.2,89,0.02,CLR,,0.05,WeatherDisplay:10.37,2013-04-13 06:26:00,
2013-04-13 02:29:00,37.0,34.1,29.88,NNE,22,0.0,0.2,89,0.02,CLR,,0.05,WeatherDisplay:10.37,2013-04-13 06:29:00,
2013-04-13 02:32:00,36.9,33.9,29.87,WSW,248,1.2,1.2,89,0.01,CLR,,0.05,WeatherDisplay:10.37,2013-04-13 06:32:00,
2013-04-13 02:34:00,36.9,33.9,29.87,WSW,248,1.2,1.2,89,0.01,CLR,,0.05,WeatherDisplay:10.37,2013-04-13 06:34:00,
2013-04-13 02:38:00,36.9,33.9,29.87,WSW,248,1.2,1.2,89,0.01,CLR,,0.05,WeatherDisplay:10.37,2013-04-13 06:38:00,
2013-04-13 02:40:00,36.9,33.9,29.87,WSW,248,1.0,1.0,89,0.00,CLR,CLR,0.05,WeatherDisplay:10.37,2013-04-13 06:40:00,
2013-04-13 02:43:00,36.9,33.9,29.87,WSW,248,1.2,1.2,89,0.01,CLR,,0.05,WeatherDisplay:10.37,2013-04-13 06:43:00,
2013-04-13 02:45:00,36.9,33.9,29.87,WSW,248,1.2,1.2,89,0.01,CLR,,0.05,WeatherDisplay:10.37,2013-04-13 06:45:00,
2013-04-13 02:48:00,36.9,33.9,29.87,WSW,248,1.2,1.2,89,0.01,CLR,,0.05,WeatherDisplay:10.37,2013-04-13 06:48:00,
2013-04-13 02:50:00,36.9,33.9,29.87,WSW,248,1.2,1.2,89,0.01,CLR,,0.05,WeatherDisplay:10.37,2013-04-13 06:50:00,
2013-04-13 02:53:00,36.9,33.9,29.87,WSW,248,1.2,1.2,89,0.01,CLR,,0.05,WeatherDisplay:10.37,2013-04-13 06:53:00,
2013-04-13 02:55:00,36.9,33.9,29.87,WSW,248,1.2,1.2,89,0.01,CLR,,0.05,WeatherDisplay:10.37,2013-04-13 06:55:00,
2013-04-13 02:58:00,36.9,33.9,29.87,WSW,248,1.2,1.2,89,0.01,CLR,,0.05,WeatherDisplay:10.37,2013-04-13 06:58:00,
2013-04-13 03:00:00,36.9,33.9,29.87,WSW,248,1.2,1.2,89,0.01,CLR,,0.05,WeatherDisplay:10.37,2013-04-13 07:00:00,
2013-04-13 03:03:00,36.9,33.9,29.88,WSW,248,0.5,0.5,89,0.00,CLR,,0.05,WeatherDisplay:10.37,2013-04-13 07:03:00,
2013-04-13 03:06:00,36.9,33.9,29.88,WSW,248,0.0,0.5,89,0.00,CLR,,0.05,WeatherDisplay:10.37,2013-04-13 07:06:00,
2013-04-13 03:08:00,36.9,33.9,29.88,WSW,248,0.0,0.5,89,0.00,CLR,,0.05,WeatherDisplay:10.37,2013-04-13 07:08:00,
2013-04-13 03:11:00,36.9,33.9,29.88,WSW,248,0.0,0.5,89,0.00,CLR,,0.05,WeatherDisplay:10.37,2013-04-13 07:11:00,
2013-04-13 03:13:00,36.9,33.9,29.88,WSW,248,0.0,0.5,89,0.00,CLR,,0.05,WeatherDisplay:10.37,2013-04-13 07:13:00,
2013-04-13 03:17:00,36.9,33.9,29.88,WSW,248,0.0,0.5,89,0.00,CLR,,0.05,WeatherDisplay:10.37,2013-04-13 07:17:00,
2013-04-13 03:18:00,36.9,33.9,29.88,WSW,248,0.0,0.5,89,0.00,CLR,,0.05,WeatherDisplay:10.37,2013-04-13 07:18:00,
2013-04-13 03:22:00,36.9,33.9,29.88,WSW,248,0.0,0.5,89,0.00,CLR,,0.05,WeatherDisplay:10.37,2013-04-13 07:22:00,
2013-04-13 03:24:00,36.9,33.9,29.88,WSW,248,0.0,0.5,89,0.00,CLR,,0.05,WeatherDisplay:10.37,2013-04-13 07:24:00,
2013-04-13 03:27:00,36.9,33.9,29.88,WSW,248,0.0,0.5,89,0.00,CLR,,0.05,WeatherDisplay:10.37,2013-04-13 07:27:00,
2013-04-13 03:29:00,36.9,33.9,29.88,WSW,248,0.0,0.5,89,0.00,CLR,,0.05,WeatherDisplay:10.37,2013-04-13 07:29:00,
2013-04-13 03:32:00,36.9,33.6,29.89,SSE,158,0.0,0.5,88,0.00,CLR,,0.05,WeatherDisplay:10.37,2013-04-13 07:32:00,
2013-04-13 03:35:00,36.9,33.6,29.89,SSE,158,0.0,0.5,88,0.00,CLR,,0.05,WeatherDisplay:10.37,2013-04-13 07:35:00,
2013-04-13 03:38:00,36.9,33.6,29.89,SSE,158,0.0,0.5,88,0.00,CLR,,0.05,WeatherDisplay:10.37,2013-04-13 07:38:00,
2013-04-13 03:40:00,36.9,33.6,29.89,SSE,158,0.0,0.5,88,0.00,CLR,,0.05,WeatherDisplay:10.37,2013-04-13 07:40:00,
2013-04-13 03:43:00,36.9,33.6,29.89,SSE,158,0.0,0.5,88,0.00,CLR,,0.05,WeatherDisplay:10.37,2013-04-13 07:43:00,
2013-04-13 03:45:00,36.9,33.6,29.89,SSE,158,0.0,0.5,88,0.00,CLR,,0.05,WeatherDisplay:10.37,2013-04-13 07:45:00,
2013-04-13 03:48:00,36.9,33.6,29.89,SSE,158,0.0,0.5,88,0.00,CLR,,0.05,WeatherDisplay:10.37,2013-04-13 07:48:00,
2013-04-13 03:51:00,36.9,33.6,29.89,SSE,158,0.0,0.5,88,0.00,CLR,,0.05,WeatherDisplay:10.37,2013-04-13 07:51:00,
2013-04-13 03:53:00,36.9,33.6,29.89,SSE,158,0.5,0.5,88,0.00,CLR,,0.05,WeatherDisplay:10.37,2013-04-13 07:53:00,
2013-04-13 03:57:00,36.9,33.6,29.89,SSE,158,0.0,0.5,88,0.00,CLR,,0.05,WeatherDisplay:10.37,2013-04-13 07:57:00,
2013-04-13 03:58:00,36.9,33.6,29.89,SSE,158,0.0,0.5,88,0.00,CLR,,0.05,WeatherDisplay:10.37,2013-04-13 07:58:00,
2013-04-13 04:02:00,37.0,33.5,29.90,NW,315,0.0,0.0,87,0.00,CLR,,0.05,WeatherDisplay:10.37,2013-04-13 08:02:00,
2013-04-13 04:03:00,37.0,33.5,29.90,NW,315,0.0,0.0,87,0.00,CLR,,0.05,WeatherDisplay:10.37,2013-04-13 08:03:00,
2013-04-13 04:08:00,37.0,33.5,29.90,NW,315,0.0,0.0,87,0.00,CLR,,0.05,WeatherDisplay:10.37,2013-04-13 08:08:00,
2013-04-13 04:13:00,37.0,33.5,29.90,NW,315,0.0,0.0,87,0.00,CLR,,0.05,WeatherDisplay:10.37,2013-04-13 08:13:00,
2013-04-13 04:18:00,37.0,33.5,29.90,NW,315,0.0,0.0,87,0.00,CLR,,0.05,WeatherDisplay:10.37,2013-04-13 08:18:00,
2013-04-13 04:20:00,37.0,33.5,29.90,NW,315,0.0,0.0,87,0.00,CLR,,0.05,WeatherDisplay:10.37,2013-04-13 08:20:00,
2013-04-13 04:24:00,37.0,33.5,29.90,NW,315,0.0,0.0,87,0.00,CLR,,0.05,WeatherDisplay:10.37,2013-04-13 08:24:00,
2013-04-13 04:25:00,37.0,33.5,29.90,NW,315,0.0,0.0,87,0.00,CLR,,0.05,WeatherDisplay:10.37,2013-04-13 08:25:00,
2013-04-13 04:29:00,37.0,33.5,29.90,NW,315,0.0,0.0,87,0.00,CLR,,0.05,WeatherDisplay:10.37,2013-04-13 08:29:00,
2013-04-13 04:30:00,37.0,33.5,29.92,ENE,68,0.0,0.0,87,0.00,CLR,,0.05,WeatherDisplay:10.37,2013-04-13 08:30:00,
2013-04-13 04:34:00,37.0,33.5,29.92,ENE,68,0.0,0.0,87,0.00,CLR,,0.05,WeatherDisplay:10.37,2013-04-13 08:34:00,
2013-04-13 04:35:00,37.0,33.5,29.92,ENE,68,0.0,0.0,87,0.00,CLR,,0.05,WeatherDisplay:10.37,2013-04-13 08:35:00,
2013-04-13 04:39:00,37.0,33.5,29.92,ENE,68,0.0,0.0,87,0.00,CLR,,0.05,WeatherDisplay:10.37,2013-04-13 08:39:00,
2013-04-13 04:41:00,37.0,33.5,29.92,ENE,68,0.0,0.0,87,0.00,CLR,,0.05,WeatherDisplay:10.37,2013-04-13 08:41:00,
2013-04-13 04:45:00,37.0,33.5,29.92,ENE,68,0.0,0.0,87,0.00,CLR,,0.05,WeatherDisplay:10.37,2013-04-13 08:45:00,
2013-04-13 04:46:00,37.0,33.5,29.92,ENE,68,0.0,0.0,87,0.00,CLR,,0.05,WeatherDisplay:10.37,2013-04-13 08:46:00,
2013-04-13 04:50:00,37.0,33.5,29.92,ENE,68,0.0,0.0,87,0.00,CLR,,0.05,WeatherDisplay:10.37,2013-04-13 08:50:00,
2013-04-13 04:52:00,37.0,33.5,29.92,ENE,68,0.0,0.0,87,0.00,CLR,,0.05,WeatherDisplay:10.37,2013-04-13 08:52:00,
2013-04-13 04:55:00,37.0,33.5,29.92,ENE,68,0.0,0.0,87,0.00,CLR,,0.05,WeatherDisplay:10.37,2013-04-13 08:55:00,
2013-04-13 04:57:00,37.0,33.5,29.92,ENE,68,0.0,0.0,87,0.00,CLR,,0.05,WeatherDisplay:10.37,2013-04-13 08:57:00,
2013-04-13 05:01:00,37.2,33.7,29.92,ESE,112,0.0,0.0,87,0.00,CLR,,0.05,WeatherDisplay:10.37,2013-04-13 09:01:00,
2013-04-13 05:02:00,37.2,33.7,29.92,ESE,112,0.0,0.0,87,0.00,CLR,,0.05,WeatherDisplay:10.37,2013-04-13 09:02:00,
2013-04-13 05:08:00,37.2,33.7,29.92,ESE,112,0.0,0.0,87,0.00,CLR,,0.05,WeatherDisplay:10.37,2013-04-13 09:08:00,
2013-04-13 05:13:00,37.2,33.7,29.92,ESE,112,0.0,0.0,87,0.00,CLR,,0.05,WeatherDisplay:10.37,2013-04-13 09:13:00,
2013-04-13 05:18:00,37.2,33.7,29.92,ESE,112,0.0,0.0,87,0.00,CLR,,0.05,WeatherDisplay:10.37,2013-04-13 09:18:00,
2013-04-13 05:23:00,37.2,33.7,29.92,ESE,112,0.0,0.0,87,0.00,CLR,,0.05,WeatherDisplay:10.37,2013-04-13 09:23:00,
2013-04-13 05:24:00,37.2,33.7,29.92,ESE,112,0.0,0.0,87,0.00,CLR,,0.05,WeatherDisplay:10.37,2013-04-13 09:24:00,
2013-04-13 05:28:00,37.2,33.7,29.92,ESE,112,0.0,0.0,87,0.00,CLR,,0.05,WeatherDisplay:10.37,2013-04-13 09:28:00,
2013-04-13 05:29:00,37.2,33.7,29.92,ESE,112,0.0,0.0,87,0.00,CLR,,0.05,WeatherDisplay:10.37,2013-04-13 09:29:00,
2013-04-13 05:33:00,37.2,33.7,29.93,WNW,292,0.2,0.2,87,0.00,CLR,,0.05,WeatherDisplay:10.37,2013-04-13 09:33:00,
2013-04-13 05:34:00,37.2,33.7,29.93,WNW,292,0.0,0.2,87,0.00,CLR,,0.05,WeatherDisplay:10.37,2013-04-13 09:34:00,
2013-04-13 05:38:00,37.2,33.7,29.93,WNW,292,0.0,0.2,87,0.00,CLR,,0.05,WeatherDisplay:10.37,2013-04-13 09:38:00,
2013-04-13 05:40:00,37.2,33.7,29.93,WNW,292,0.0,0.2,87,0.00,CLR,,0.05,WeatherDisplay:10.37,2013-04-13 09:40:00,
2013-04-13 05:43:00,37.2,33.7,29.93,WNW,292,0.0,0.2,87,0.00,CLR,,0.05,WeatherDisplay:10.37,2013-04-13 09:43:00,
2013-04-13 05:45:00,37.2,33.7,29.93,WNW,292,0.0,0.2,87,0.00,CLR,,0.05,WeatherDisplay:10.37,2013-04-13 09:45:00,
2013-04-13 05:48:00,37.2,33.7,29.93,WNW,292,0.0,0.2,87,0.00,CLR,,0.05,WeatherDisplay:10.37,2013-04-13 09:48:00,
2013-04-13 05:50:00,37.2,33.7,29.93,WNW,292,0.0,0.2,87,0.00,CLR,,0.05,WeatherDisplay:10.37,2013-04-13 09:50:00,
2013-04-13 05:53:00,37.2,33.7,29.93,WNW,292,0.0,0.2,87,0.00,CLR,,0.05,WeatherDisplay:10.37,2013-04-13 09:53:00,
2013-04-13 05:55:00,37.2,33.7,29.93,WNW,292,0.0,0.2,87,0.00,CLR,,0.05,WeatherDisplay:10.37,2013-04-13 09:55:00,
2013-04-13 05:58:00,37.2,33.7,29.93,WNW,292,0.0,0.2,87,0.00,CLR,,0.05,WeatherDisplay:10.37,2013-04-13 09:58:00,
2013-04-13 06:00:00,37.2,33.7,29.93,WNW,292,0.0,0.2,87,0.00,CLR,,0.05,WeatherDisplay:10.37,2013-04-13 10:00:00,
2013-04-13 06:04:00,36.7,33.2,29.92,West,270,0.0,0.0,87,0.00,CLR,,0.05,WeatherDisplay:10.37,2013-04-13 10:04:00,
2013-04-13 06:05:00,36.7,33.2,29.92,West,270,0.0,0.0,87,0.00,CLR,,0.05,WeatherDisplay:10.37,2013-04-13 10:05:00,
2013-04-13 06:09:00,36.7,33.2,29.92,West,270,0.0,0.0,87,0.00,CLR,,0.05,WeatherDisplay:10.37,2013-04-13 10:09:00,
2013-04-13 06:12:00,36.7,33.2,29.92,West,270,0.0,0.0,87,0.00,CLR,,0.05,WeatherDisplay:10.37,2013-04-13 10:12:00,
2013-04-13 06:14:00,36.7,33.2,29.92,West,270,0.0,0.0,87,0.00,CLR,,0.05,WeatherDisplay:10.37,2013-04-13 10:14:00,
2013-04-13 06:17:00,36.7,33.2,29.92,West,270,0.0,0.0,87,0.00,CLR,,0.05,WeatherDisplay:10.37,2013-04-13 10:17:00,
2013-04-13 06:19:00,36.7,33.2,29.92,West,270,0.0,0.0,87,0.00,CLR,,0.05,WeatherDisplay:10.37,2013-04-13 10:19:00,
2013-04-13 06:23:00,36.7,33.2,29.92,West,270,0.0,0.0,87,0.00,CLR,,0.05,WeatherDisplay:10.37,2013-04-13 10:23:00,
2013-04-13 06:24:00,36.7,33.2,29.92,West,270,0.0,0.0,87,0.00,CLR,,0.05,WeatherDisplay:10.37,2013-04-13 10:24:00,
2013-04-13 06:27:00,36.7,33.2,29.92,West,270,0.0,0.0,87,0.00,CLR,,0.05,WeatherDisplay:10.37,2013-04-13 10:27:00,
2013-04-13 06:29:00,36.7,33.2,29.92,West,270,0.0,0.0,87,0.00,CLR,,0.05,WeatherDisplay:10.37,2013-04-13 10:29:00,
2013-04-13 06:34:00,36.5,33.0,29.92,WSW,248,0.0,0.0,87,0.00,CLR,,0.05,WeatherDisplay:10.37,2013-04-13 10:34:00,
2013-04-13 06:39:00,36.5,33.0,29.92,WSW,248,0.0,0.0,87,0.00,CLR,,0.05,WeatherDisplay:10.37,2013-04-13 10:39:00,
2013-04-13 06:40:00,36.5,33.0,29.92,WSW,248,0.0,0.0,87,0.00,CLR,,0.05,WeatherDisplay:10.37,2013-04-13 10:40:00,
2013-04-13 06:44:00,36.5,33.0,29.92,WSW,248,0.0,0.0,87,0.00,CLR,,0.05,WeatherDisplay:10.37,2013-04-13 10:44:00,
2013-04-13 06:47:00,36.5,33.0,29.92,WSW,248,0.0,0.0,87,0.00,CLR,,0.05,WeatherDisplay:10.37,2013-04-13 10:47:00,
2013-04-13 06:49:00,36.5,33.0,29.92,WSW,248,0.0,0.0,87,0.00,CLR,,0.05,WeatherDisplay:10.37,2013-04-13 10:49:00,
2013-04-13 06:52:00,36.5,33.0,29.92,WSW,248,0.0,0.0,87,0.00,CLR,,0.05,WeatherDisplay:10.37,2013-04-13 10:52:00,
2013-04-13 06:54:00,36.5,33.0,29.92,WSW,248,0.0,0.0,87,0.00,CLR,,0.05,WeatherDisplay:10.37,2013-04-13 10:54:00,
2013-04-13 06:57:00,36.5,33.0,29.92,WSW,248,0.0,0.0,87,0.00,CLR,,0.05,WeatherDisplay:10.37,2013-04-13 10:57:00,
2013-04-13 07:00:00,36.5,33.0,29.92,WSW,248,0.0,0.0,87,0.00,CLR,,0.05,WeatherDisplay:10.37,2013-04-13 11:00:00,
2013-04-13 07:02:00,37.0,33.5,29.93,East,90,0.0,0.5,87,0.00,CLR,,0.05,WeatherDisplay:10.37,2013-04-13 11:02:00,
2013-04-13 07:04:00,37.0,33.5,29.93,East,90,0.0,0.5,87,0.00,CLR,,0.05,WeatherDisplay:10.37,2013-04-13 11:04:00,
2013-04-13 07:08:00,37.0,33.5,29.93,East,90,0.0,0.5,87,0.00,CLR,,0.05,WeatherDisplay:10.37,2013-04-13 11:08:00,
2013-04-13 07:12:00,37.0,33.5,29.93,East,90,0.0,0.5,87,0.00,CLR,,0.05,WeatherDisplay:10.37,2013-04-13 11:12:00,
2013-04-13 07:17:00,37.0,33.5,29.93,East,90,0.0,0.5,87,0.00,CLR,,0.05,WeatherDisplay:10.37,2013-04-13 11:17:00,
2013-04-13 07:19:00,37.0,33.5,29.93,East,90,0.0,0.5,87,0.00,CLR,,0.05,WeatherDisplay:10.37,2013-04-13 11:19:00,
2013-04-13 07:22:00,37.0,33.5,29.93,East,90,0.0,0.5,87,0.00,CLR,,0.05,WeatherDisplay:10.37,2013-04-13 11:22:00,
2013-04-13 07:24:00,37.0,33.5,29.93,East,90,0.0,0.0,87,0.00,CLR,CLR,0.05,WeatherDisplay:10.37,2013-04-13 11:24:00,
2013-04-13 07:28:00,37.0,33.5,29.93,East,90,0.0,0.5,87,0.00,CLR,,0.05,WeatherDisplay:10.37,2013-04-13 11:28:00,
2013-04-13 07:30:00,37.0,33.5,29.93,East,90,0.0,0.5,87,0.00,CLR,,0.05,WeatherDisplay:10.37,2013-04-13 11:30:00,
2013-04-13 07:33:00,37.8,33.9,29.95,NE,45,0.0,0.2,86,0.00,CLR,,0.05,WeatherDisplay:10.37,2013-04-13 11:33:00,
2013-04-13 07:35:00,37.8,33.9,29.95,NE,45,0.0,0.2,86,0.00,CLR,,0.05,WeatherDisplay:10.37,2013-04-13 11:35:00,
2013-04-13 07:38:00,37.8,33.9,29.95,NE,45,0.0,0.2,86,0.00,CLR,,0.05,WeatherDisplay:10.37,2013-04-13 11:38:00,
2013-04-13 07:40:00,37.8,33.9,29.95,NE,45,0.0,0.2,86,0.00,CLR,,0.05,WeatherDisplay:10.37,2013-04-13 11:40:00,
2013-04-13 07:43:00,37.8,33.9,29.95,NE,45,0.2,0.2,86,0.00,CLR,,0.05,WeatherDisplay:10.37,2013-04-13 11:43:00,
2013-04-13 07:45:00,37.8,33.9,29.95,NE,45,0.0,0.2,86,0.00,CLR,,0.05,WeatherDisplay:10.37,2013-04-13 11:45:00,
2013-04-13 07:48:00,37.8,33.9,29.95,NE,45,0.0,0.2,86,0.00,CLR,,0.05,WeatherDisplay:10.37,2013-04-13 11:48:00,
2013-04-13 07:50:00,37.8,33.9,29.95,NE,45,0.0,0.2,86,0.00,CLR,,0.05,WeatherDisplay:10.37,2013-04-13 11:50:00,
2013-04-13 07:54:00,37.8,33.9,29.95,NE,45,0.0,0.2,86,0.00,CLR,,0.05,WeatherDisplay:10.37,2013-04-13 11:54:00,
2013-04-13 07:55:00,37.8,33.9,29.95,NE,45,0.0,0.2,86,0.00,CLR,,0.05,WeatherDisplay:10.37,2013-04-13 11:55:00,
2013-04-13 07:59:00,37.8,33.9,29.95,NE,45,0.0,0.2,86,0.00,CLR,,0.05,WeatherDisplay:10.37,2013-04-13 11:59:00,
2013-04-13 08:00:00,38.5,34.1,29.96,SSE,158,0.0,0.0,84,0.00,CLR,,0.05,WeatherDisplay:10.37,2013-04-13 12:00:00,
2013-04-13 08:06:00,38.5,34.1,29.96,SSE,158,0.0,0.0,84,0.00,CLR,,0.05,WeatherDisplay:10.37,2013-04-13 12:06:00,
2013-04-13 08:11:00,38.5,34.1,29.96,SSE,158,0.0,0.0,84,0.00,CLR,,0.05,WeatherDisplay:10.37,2013-04-13 12:11:00,
2013-04-13 08:12:00,38.5,34.1,29.96,SSE,158,0.0,0.0,84,0.00,CLR,,0.05,WeatherDisplay:10.37,2013-04-13 12:12:00,
2013-04-13 08:17:00,38.5,34.1,29.96,SSE,158,0.0,0.0,84,0.00,CLR,,0.05,WeatherDisplay:10.37,2013-04-13 12:17:00,
2013-04-13 08:22:00,38.5,34.1,29.96,SSE,158,0.0,0.0,84,0.00,CLR,,0.05,WeatherDisplay:10.37,2013-04-13 12:22:00,
2013-04-13 08:28:00,38.5,34.1,29.96,SSE,158,0.0,0.0,84,0.00,CLR,,0.05,WeatherDisplay:10.37,2013-04-13 12:28:00,
2013-04-13 08:33:00,39.4,34.3,29.96,ESE,112,0.0,0.2,82,0.00,CLR,,0.05,WeatherDisplay:10.37,2013-04-13 12:33:00,
2013-04-13 08:38:00,39.4,34.3,29.96,ESE,112,0.0,0.2,82,0.00,CLR,,0.05,WeatherDisplay:10.37,2013-04-13 12:38:00,
2013-04-13 08:43:00,39.4,34.3,29.96,ESE,112,0.0,0.2,82,0.00,CLR,,0.05,WeatherDisplay:10.37,2013-04-13 12:43:00,
2013-04-13 08:45:00,39.4,34.3,29.96,ESE,112,0.0,0.2,82,0.00,CLR,,0.05,WeatherDisplay:10.37,2013-04-13 12:45:00,
2013-04-13 08:50:00,39.4,34.3,29.96,ESE,112,0.0,0.2,82,0.00,CLR,,0.05,WeatherDisplay:10.37,2013-04-13 12:50:00,
2013-04-13 08:55:00,39.4,34.3,29.96,ESE,112,0.2,0.2,82,0.00,CLR,,0.05,WeatherDisplay:10.37,2013-04-13 12:55:00,
2013-04-13 09:00:00,40.6,35.6,29.97,SE,135,0.0,0.5,82,0.00,CLR,,0.05,WeatherDisplay:10.37,2013-04-13 13:00:00,
2013-04-13 09:02:00,40.6,35.6,29.97,SE,135,0.0,0.5,82,0.00,CLR,,0.05,WeatherDisplay:10.37,2013-04-13 13:02:00,
2013-04-13 09:06:00,40.6,35.6,29.97,SE,135,0.0,0.5,82,0.00,CLR,,0.05,WeatherDisplay:10.37,2013-04-13 13:06:00,
2013-04-13 09:07:00,40.6,35.6,29.97,SE,135,0.5,0.5,82,0.00,CLR,,0.05,WeatherDisplay:10.37,2013-04-13 13:07:00,
2013-04-13 09:11:00,40.6,35.6,29.97,SE,135,0.0,0.5,82,0.00,CLR,,0.05,WeatherDisplay:10.37,2013-04-13 13:11:00,
2013-04-13 09:13:00,40.6,35.6,29.97,SE,135,0.0,0.5,82,0.00,CLR,,0.05,WeatherDisplay:10.37,2013-04-13 13:13:00,
2013-04-13 09:17:00,40.6,35.6,29.97,SE,135,0.0,0.5,82,0.00,CLR,,0.05,WeatherDisplay:10.37,2013-04-13 13:17:00,
2013-04-13 09:18:00,40.6,35.6,29.97,SE,135,0.0,0.5,82,0.00,CLR,,0.05,WeatherDisplay:10.37,2013-04-13 13:18:00,
2013-04-13 09:22:00,40.6,35.6,29.97,SE,135,0.0,0.5,82,0.00,CLR,,0.05,WeatherDisplay:10.37,2013-04-13 13:22:00,
2013-04-13 09:23:00,40.6,35.6,29.97,SE,135,0.5,0.5,82,0.00,CLR,,0.05,WeatherDisplay:10.37,2013-04-13 13:23:00,
2013-04-13 09:29:00,40.6,35.6,29.97,SE,135,0.0,0.5,82,0.00,CLR,,0.05,WeatherDisplay:10.37,2013-04-13 13:29:00,
2013-04-13 09:30:00,40.6,35.6,29.97,SE,135,0.0,0.5,82,0.00,CLR,,0.05,WeatherDisplay:10.37,2013-04-13 13:30:00,
2013-04-13 09:34:00,42.6,36.9,29.97,SE,135,0.0,0.5,80,0.00,CLR,,0.05,WeatherDisplay:10.37,2013-04-13 13:34:00,
2013-04-13 09:35:00,42.6,36.9,29.97,SE,135,0.0,0.5,80,0.00,CLR,,0.05,WeatherDisplay:10.37,2013-04-13 13:35:00,
2013-04-13 09:39:00,42.6,36.9,29.97,SE,135,0.0,0.5,80,0.00,CLR,,0.05,WeatherDisplay:10.37,2013-04-13 13:39:00,
2013-04-13 09:40:00,42.6,36.9,29.97,SE,135,0.0,0.5,80,0.00,CLR,,0.05,WeatherDisplay:10.37,2013-04-13 13:40:00,
2013-04-13 09:45:00,42.6,36.9,29.97,SE,135,0.0,0.5,80,0.00,CLR,,0.05,WeatherDisplay:10.37,2013-04-13 13:45:00,
2013-04-13 09:47:00,42.6,36.9,29.97,SE,135,0.0,0.5,80,0.00,CLR,,0.05,WeatherDisplay:10.37,2013-04-13 13:47:00,
2013-04-13 09:50:00,42.6,36.9,29.97,SE,135,0.0,0.5,80,0.00,CLR,,0.05,WeatherDisplay:10.37,2013-04-13 13:50:00,
2013-04-13 09:52:00,42.6,36.9,29.97,SE,135,0.0,0.5,80,0.00,CLR,,0.05,WeatherDisplay:10.37,2013-04-13 13:52:00,
2013-04-13 09:55:00,42.6,36.9,29.97,SE,135,0.0,0.5,80,0.00,CLR,,0.05,WeatherDisplay:10.37,2013-04-13 13:55:00,
2013-04-13 09:58:00,42.6,36.9,29.97,SE,135,0.0,0.5,80,0.00,CLR,,0.05,WeatherDisplay:10.37,2013-04-13 13:58:00,
2013-04-13 10:00:00,43.9,37.8,29.98,SE,135,0.0,0.9,79,0.00,CLR,,0.05,WeatherDisplay:10.37,2013-04-13 14:00:00,
2013-04-13 10:03:00,43.9,37.8,29.98,SE,135,1.2,1.2,79,0.00,CLR,,0.05,WeatherDisplay:10.37,2013-04-13 14:03:00,
2013-04-13 10:05:00,43.9,37.8,29.98,SE,135,1.2,1.2,79,0.00,CLR,,0.05,WeatherDisplay:10.37,2013-04-13 14:05:00,
2013-04-13 10:09:00,43.9,37.8,29.98,SE,135,1.2,1.2,79,0.00,CLR,,0.05,WeatherDisplay:10.37,2013-04-13 14:09:00,
2013-04-13 10:10:00,43.9,37.8,29.98,SE,135,1.2,1.2,79,0.00,CLR,,0.05,WeatherDisplay:10.37,2013-04-13 14:10:00,
2013-04-13 10:14:00,43.9,37.8,29.98,SE,135,1.2,1.2,79,0.00,CLR,,0.05,WeatherDisplay:10.37,2013-04-13 14:14:00,
2013-04-13 10:15:00,43.9,37.8,29.98,SE,135,1.2,1.2,79,0.00,CLR,,0.05,WeatherDisplay:10.37,2013-04-13 14:15:00,
2013-04-13 10:19:00,43.9,37.8,29.98,SE,135,1.2,1.2,79,0.00,CLR,,0.05,WeatherDisplay:10.37,2013-04-13 14:19:00,
2013-04-13 10:20:00,43.9,37.8,29.98,SE,135,1.2,1.2,79,0.00,CLR,,0.05,WeatherDisplay:10.37,2013-04-13 14:20:00,
2013-04-13 10:24:00,43.9,37.8,29.98,SE,135,1.2,1.2,79,0.00,CLR,,0.05,WeatherDisplay:10.37,2013-04-13 14:24:00,
2013-04-13 10:25:00,43.9,37.8,29.98,SE,135,1.2,1.2,79,0.00,CLR,,0.05,WeatherDisplay:10.37,2013-04-13 14:25:00,
2013-04-13 10:29:00,43.9,37.8,29.98,SE,135,1.2,1.2,79,0.00,CLR,,0.05,WeatherDisplay:10.37,2013-04-13 14:29:00,
2013-04-13 10:30:00,45.7,38.9,29.99,SE,135,1.2,0.0,77,0.00,CLR,,0.05,WeatherDisplay:10.37,2013-04-13 14:30:00,
2013-04-13 10:34:00,45.7,38.9,29.99,SE,135,0.0,0.0,77,0.00,CLR,,0.05,WeatherDisplay:10.37,2013-04-13 14:34:00,
2013-04-13 10:36:00,45.7,38.9,29.99,SE,135,0.0,0.0,77,0.00,CLR,,0.05,WeatherDisplay:10.37,2013-04-13 14:36:00,
2013-04-13 10:39:00,45.7,38.9,29.99,SE,135,0.0,0.0,77,0.00,CLR,,0.05,WeatherDisplay:10.37,2013-04-13 14:39:00,
2013-04-13 10:42:00,45.7,38.9,29.99,SE,135,0.0,0.0,77,0.00,CLR,,0.05,WeatherDisplay:10.37,2013-04-13 14:42:00,
2013-04-13 10:44:00,45.7,38.9,29.99,SE,135,0.0,0.0,77,0.00,CLR,,0.05,WeatherDisplay:10.37,2013-04-13 14:44:00,
2013-04-13 10:47:00,45.7,38.9,29.99,SE,135,0.0,0.0,77,0.00,CLR,,0.05,WeatherDisplay:10.37,2013-04-13 14:47:00,
2013-04-13 10:49:00,45.7,38.9,29.99,SE,135,0.0,0.0,77,0.00,CLR,,0.05,WeatherDisplay:10.37,2013-04-13 14:49:00,
2013-04-13 10:54:00,45.7,38.9,29.99,SE,135,0.0,0.0,77,0.00,CLR,,0.05,WeatherDisplay:10.37,2013-04-13 14:54:00,
2013-04-13 10:55:00,45.7,38.9,29.99,SE,135,0.0,0.0,77,0.00,CLR,,0.05,WeatherDisplay:10.37,2013-04-13 14:55:00,
2013-04-13 10:59:00,45.7,38.9,29.99,SE,135,0.0,0.0,77,0.00,CLR,,0.05,WeatherDisplay:10.37,2013-04-13 14:59:00,
2013-04-13 11:00:00,45.7,38.9,29.99,SE,135,0.0,0.0,77,0.00,CLR,CLR,0.05,WeatherDisplay:10.37,2013-04-13 15:00:00,
2013-04-13 11:04:00,47.1,38.9,29.99,NE,45,2.3,2.9,73,0.00,CLR,,0.05,WeatherDisplay:10.37,2013-04-13 15:04:00,
2013-04-13 11:05:00,47.1,38.9,29.99,NE,45,2.3,2.9,73,0.00,CLR,,0.05,WeatherDisplay:10.37,2013-04-13 15:05:00,
2013-04-13 11:09:00,47.1,38.9,29.99,NE,45,2.3,2.9,73,0.00,CLR,,0.05,WeatherDisplay:10.37,2013-04-13 15:09:00,
2013-04-13 11:10:00,47.1,38.9,29.99,NE,45,2.3,2.9,73,0.00,CLR,,0.05,WeatherDisplay:10.37,2013-04-13 15:10:00,
2013-04-13 11:15:00,47.1,38.9,29.99,NE,45,2.3,2.9,73,0.00,CLR,,0.05,WeatherDisplay:10.37,2013-04-13 15:15:00,
2013-04-13 11:20:00,47.1,38.9,29.99,NE,45,2.3,2.9,73,0.00,CLR,,0.05,WeatherDisplay:10.37,2013-04-13 15:20:00,
2013-04-13 11:25:00,47.1,38.9,29.99,NE,45,2.3,2.9,73,0.00,CLR,,0.05,WeatherDisplay:10.37,2013-04-13 15:25:00,
2013-04-13 11:30:00,47.1,38.9,29.99,NE,45,2.3,2.9,73,0.00,CLR,,0.05,WeatherDisplay:10.37,2013-04-13 15:30:00,
2013-04-13 11:31:00,48.6,37.7,29.99,ESE,112,4.6,4.9,66,0.00,CLR,,0.05,WeatherDisplay:10.37,2013-04-13 15:31:00,
2013-04-13 11:35:00,48.6,37.7,29.99,ESE,112,4.6,4.9,66,0.00,CLR,,0.05,WeatherDisplay:10.37,2013-04-13 15:35:00,
2013-04-13 11:36:00,48.6,37.7,29.99,ESE,112,4.6,4.9,66,0.00,CLR,,0.05,WeatherDisplay:10.37,2013-04-13 15:36:00,
2013-04-13 11:40:00,48.6,37.7,29.99,ESE,112,4.6,4.9,66,0.00,CLR,,0.05,WeatherDisplay:10.37,2013-04-13 15:40:00,
2013-04-13 11:43:00,48.6,37.7,29.99,ESE,112,4.6,4.9,66,0.00,CLR,,0.05,WeatherDisplay:10.37,2013-04-13 15:43:00,
2013-04-13 11:45:00,48.6,37.7,29.99,ESE,112,4.6,4.9,66,0.00,CLR,,0.05,WeatherDisplay:10.37,2013-04-13 15:45:00,
2013-04-13 11:48:00,48.6,37.7,29.99,ESE,112,4.6,4.9,66,0.00,CLR,,0.05,WeatherDisplay:10.37,2013-04-13 15:48:00,
2013-04-13 11:50:00,48.6,37.7,29.99,ESE,112,4.6,4.9,66,0.00,CLR,,0.05,WeatherDisplay:10.37,2013-04-13 15:50:00,
2013-04-13 11:54:00,48.6,37.7,29.99,ESE,112,4.6,4.9,66,0.00,CLR,,0.05,WeatherDisplay:10.37,2013-04-13 15:54:00,
2013-04-13 11:56:00,48.6,37.7,29.99,ESE,112,4.6,4.9,66,0.00,CLR,,0.05,WeatherDisplay:10.37,2013-04-13 15:56:00,
2013-04-13 11:59:00,48.6,37.7,29.99,ESE,112,4.6,4.9,66,0.00,CLR,,0.05,WeatherDisplay:10.37,2013-04-13 15:59:00,
2013-04-13 12:01:00,48.4,37.5,29.99,North,0,4.6,4.6,66,0.00,CLR,,0.05,WeatherDisplay:10.37,2013-04-13 16:01:00,
2013-04-13 12:04:00,48.4,37.5,29.99,North,0,2.3,2.3,66,0.00,CLR,,0.05,WeatherDisplay:10.37,2013-04-13 16:04:00,
2013-04-13 12:06:00,48.4,37.5,29.99,North,0,2.3,2.3,66,0.00,CLR,,0.05,WeatherDisplay:10.37,2013-04-13 16:06:00,
2013-04-13 12:09:00,48.4,37.5,29.99,North,0,2.3,2.3,66,0.00,CLR,,0.05,WeatherDisplay:10.37,2013-04-13 16:09:00,
2013-04-13 12:11:00,48.4,37.5,29.99,North,0,2.3,2.3,66,0.00,CLR,,0.05,WeatherDisplay:10.37,2013-04-13 16:11:00,
2013-04-13 12:14:00,48.4,37.5,29.99,North,0,2.3,2.3,66,0.00,CLR,,0.05,WeatherDisplay:10.37,2013-04-13 16:14:00,
2013-04-13 12:18:00,48.4,37.5,29.99,North,0,2.3,2.3,66,0.00,CLR,,0.05,WeatherDisplay:10.37,2013-04-13 16:18:00,
2013-04-13 12:19:00,48.4,37.5,29.99,North,0,2.3,2.3,66,0.00,CLR,,0.05,WeatherDisplay:10.37,2013-04-13 16:19:00,
2013-04-13 12:23:00,48.4,37.5,29.99,North,0,2.3,2.3,66,0.00,CLR,,0.05,WeatherDisplay:10.37,2013-04-13 16:23:00,
2013-04-13 12:25:00,48.4,37.5,29.99,North,0,2.3,2.3,66,0.00,CLR,,0.05,WeatherDisplay:10.37,2013-04-13 16:25:00,
2013-04-13 12:29:00,48.4,37.5,29.99,North,0,2.3,2.3,66,0.00,CLR,,0.05,WeatherDisplay:10.37,2013-04-13 16:29:00,
2013-04-13 12:30:00,48.4,37.5,29.99,North,0,2.3,2.3,66,0.00,CLR,,0.05,WeatherDisplay:10.37,2013-04-13 16:30:00,
2013-04-13 12:34:00,49.6,37.1,29.99,South,180,0.0,0.5,62,0.00,CLR,,0.05,WeatherDisplay:10.37,2013-04-13 16:34:00,
2013-04-13 12:35:00,49.6,37.1,29.99,South,180,0.0,0.5,62,0.00,CLR,,0.05,WeatherDisplay:10.37,2013-04-13 16:35:00,
2013-04-13 12:39:00,49.6,37.1,29.99,South,180,0.0,0.5,62,0.00,CLR,,0.05,WeatherDisplay:10.37,2013-04-13 16:39:00,
2013-04-13 12:40:00,49.6,37.1,29.99,South,180,0.0,0.5,62,0.00,CLR,,0.05,WeatherDisplay:10.37,2013-04-13 16:40:00,
2013-04-13 12:44:00,49.6,37.1,29.99,South,180,0.0,0.5,62,0.00,CLR,,0.05,WeatherDisplay:10.37,2013-04-13 16:44:00,
2013-04-13 12:45:00,49.6,37.1,29.99,South,180,0.0,0.5,62,0.00,CLR,,0.05,WeatherDisplay:10.37,2013-04-13 16:45:00,
2013-04-13 12:49:00,49.6,37.1,29.99,South,180,0.0,0.5,62,0.00,CLR,,0.05,WeatherDisplay:10.37,2013-04-13 16:49:00,
2013-04-13 12:50:00,49.6,37.1,29.99,South,180,0.0,0.5,62,0.00,CLR,,0.05,WeatherDisplay:10.37,2013-04-13 16:50:00,
2013-04-13 12:54:00,49.6,37.1,29.99,South,180,0.0,0.5,62,0.00,CLR,,0.05,WeatherDisplay:10.37,2013-04-13 16:54:00,
2013-04-13 12:55:00,49.6,37.1,29.99,South,180,0.5,0.5,62,0.00,CLR,,0.05,WeatherDisplay:10.37,2013-04-13 16:55:00,
2013-04-13 13:00:00,49.6,37.1,29.99,South,180,0.0,0.0,62,0.00,CLR,CLR,0.05,WeatherDisplay:10.37,2013-04-13 17:00:00,
2013-04-13 13:01:00,50.4,36.1,29.99,NE,45,2.3,2.6,58,0.00,CLR,,0.05,WeatherDisplay:10.37,2013-04-13 17:01:00,
2013-04-13 13:05:00,50.4,36.1,29.99,NE,45,2.3,2.6,58,0.00,CLR,,0.05,WeatherDisplay:10.37,2013-04-13 17:05:00,
2013-04-13 13:07:00,50.4,36.1,29.99,NE,45,2.3,2.6,58,0.00,CLR,,0.05,WeatherDisplay:10.37,2013-04-13 17:07:00,
2013-04-13 13:10:00,50.4,36.1,29.99,NE,45,2.3,2.6,58,0.00,CLR,,0.05,WeatherDisplay:10.37,2013-04-13 17:10:00,
2013-04-13 13:13:00,50.4,36.1,29.99,NE,45,2.3,2.6,58,0.00,CLR,,0.05,WeatherDisplay:10.37,2013-04-13 17:13:00,
2013-04-13 13:16:00,50.4,36.1,29.99,NE,45,2.3,2.6,58,0.00,CLR,,0.05,WeatherDisplay:10.37,2013-04-13 17:16:00,
2013-04-13 13:18:00,50.4,36.1,29.99,NE,45,2.3,2.6,58,0.00,CLR,,0.05,WeatherDisplay:10.37,2013-04-13 17:18:00,
2013-04-13 13:22:00,50.4,36.1,29.99,NE,45,2.3,2.6,58,0.00,CLR,,0.05,WeatherDisplay:10.37,2013-04-13 17:22:00,
2013-04-13 13:23:00,50.4,36.1,29.99,NE,45,2.3,2.6,58,0.00,CLR,,0.05,WeatherDisplay:10.37,2013-04-13 17:23:00,
2013-04-13 13:28:00,50.4,36.1,29.99,NE,45,2.3,2.6,58,0.00,CLR,,0.05,WeatherDisplay:10.37,2013-04-13 17:28:00,
2013-04-13 13:33:00,51.3,36.1,29.97,ESE,112,0.0,0.5,56,0.00,CLR,,0.05,WeatherDisplay:10.37,2013-04-13 17:33:00,
2013-04-13 13:38:00,51.3,36.1,29.97,ESE,112,0.0,0.5,56,0.00,CLR,,0.05,WeatherDisplay:10.37,2013-04-13 17:38:00,
2013-04-13 13:43:00,51.3,36.1,29.97,ESE,112,0.0,0.5,56,0.00,CLR,,0.05,WeatherDisplay:10.37,2013-04-13 17:43:00,
2013-04-13 13:45:00,51.3,36.1,29.97,ESE,112,0.5,0.5,56,0.00,CLR,,0.05,WeatherDisplay:10.37,2013-04-13 17:45:00,
2013-04-13 13:48:00,51.3,36.1,29.97,ESE,112,0.0,0.5,56,0.00,CLR,,0.05,WeatherDisplay:10.37,2013-04-13 17:48:00,
2013-04-13 13:51:00,51.3,36.1,29.97,ESE,112,0.0,0.5,56,0.00,CLR,,0.05,WeatherDisplay:10.37,2013-04-13 17:51:00,
2013-04-13 13:54:00,51.3,36.1,29.97,ESE,112,0.0,0.5,56,0.00,CLR,,0.05,WeatherDisplay:10.37,2013-04-13 17:54:00,
2013-04-13 13:57:00,51.3,36.1,29.97,ESE,112,0.0,0.5,56,0.00,CLR,,0.05,WeatherDisplay:10.37,2013-04-13 17:57:00,
2013-04-13 14:02:00,52.5,35.9,29.98,East,90,1.2,1.2,53,0.00,CLR,,0.05,WeatherDisplay:10.37,2013-04-13 18:02:00,
2013-04-13 14:07:00,52.5,35.9,29.98,East,90,1.2,1.2,53,0.00,CLR,,0.05,WeatherDisplay:10.37,2013-04-13 18:07:00,
2013-04-13 14:12:00,52.5,35.9,29.98,East,90,1.2,1.2,53,0.00,CLR,,0.05,WeatherDisplay:10.37,2013-04-13 18:12:00,
2013-04-13 14:18:00,52.5,35.9,29.98,East,90,1.2,1.2,53,0.00,CLR,,0.05,WeatherDisplay:10.37,2013-04-13 18:18:00,
2013-04-13 14:23:00,52.5,35.9,29.98,East,90,1.2,1.2,53,0.00,CLR,,0.05,WeatherDisplay:10.37,2013-04-13 18:23:00,
2013-04-13 14:24:00,52.5,35.9,29.98,East,90,1.2,1.2,53,0.00,CLR,,0.05,WeatherDisplay:10.37,2013-04-13 18:24:00,
2013-04-13 14:27:00,52.5,35.9,29.98,East,90,1.2,1.2,53,0.00,CLR,,0.05,WeatherDisplay:10.37,2013-04-13 18:27:00,
2013-04-13 14:32:00,52.5,35.4,29.97,ESE,112,0.0,0.5,52,0.00,CLR,,0.05,WeatherDisplay:10.37,2013-04-13 18:32:00,
2013-04-13 14:37:00,52.5,35.4,29.97,ESE,112,0.0,0.5,52,0.00,CLR,,0.05,WeatherDisplay:10.37,2013-04-13 18:37:00,
2013-04-13 14:38:00,52.5,35.4,29.97,ESE,112,0.0,0.5,52,0.00,CLR,,0.05,WeatherDisplay:10.37,2013-04-13 18:38:00,
2013-04-13 14:39:00,52.5,35.4,29.97,ESE,112,0.0,0.5,52,0.00,CLR,,0.05,WeatherDisplay:10.37,2013-04-13 18:39:00,
2013-04-13 14:43:00,52.5,35.4,29.97,ESE,112,0.0,0.5,52,0.00,CLR,,0.05,WeatherDisplay:10.37,2013-04-13 18:43:00,
2013-04-13 14:44:00,52.5,35.4,29.97,ESE,112,0.0,0.5,52,0.00,CLR,,0.05,WeatherDisplay:10.37,2013-04-13 18:44:00,
2013-04-13 14:48:00,52.5,35.4,29.97,ESE,112,0.0,0.5,52,0.00,CLR,,0.05,WeatherDisplay:10.37,2013-04-13 18:48:00,
2013-04-13 14:49:00,52.5,35.4,29.97,ESE,112,0.0,0.5,52,0.00,CLR,,0.05,WeatherDisplay:10.37,2013-04-13 18:49:00,
2013-04-13 14:53:00,52.5,35.4,29.97,ESE,112,0.0,0.5,52,0.00,CLR,,0.05,WeatherDisplay:10.37,2013-04-13 18:53:00,
2013-04-13 14:54:00,52.5,35.4,29.97,ESE,112,0.0,0.5,52,0.00,CLR,,0.05,WeatherDisplay:10.37,2013-04-13 18:54:00,
2013-04-13 14:58:00,52.5,35.4,29.97,ESE,112,0.0,0.5,52,0.00,CLR,,0.05,WeatherDisplay:10.37,2013-04-13 18:58:00,
2013-04-13 14:59:00,52.5,35.4,29.97,ESE,112,0.0,0.5,52,0.00,CLR,,0.05,WeatherDisplay:10.37,2013-04-13 18:59:00,
2013-04-13 15:00:00,52.5,35.4,29.97,ESE,112,0.0,0.5,52,0.00,CLR,,0.05,WeatherDisplay:10.37,2013-04-13 19:00:00,
2013-04-13 15:04:00,53.4,36.2,29.96,SSE,158,2.3,2.4,52,0.00,CLR,,0.05,WeatherDisplay:10.37,2013-04-13 19:04:00,
2013-04-13 15:05:00,53.4,36.2,29.96,SSE,158,2.3,2.4,52,0.00,CLR,,0.05,WeatherDisplay:10.37,2013-04-13 19:05:00,
2013-04-13 15:09:00,53.4,36.2,29.96,SSE,158,2.3,2.4,52,0.00,CLR,,0.05,WeatherDisplay:10.37,2013-04-13 19:09:00,
2013-04-13 15:10:00,53.4,36.2,29.96,SSE,158,2.3,2.4,52,0.00,CLR,,0.05,WeatherDisplay:10.37,2013-04-13 19:10:00,
2013-04-13 15:14:00,53.4,36.2,29.96,SSE,158,2.3,2.4,52,0.00,CLR,,0.05,WeatherDisplay:10.37,2013-04-13 19:14:00,
2013-04-13 15:15:00,53.4,36.2,29.96,SSE,158,2.4,2.4,52,0.00,CLR,,0.05,WeatherDisplay:10.37,2013-04-13 19:15:00,
2013-04-13 15:19:00,53.4,36.2,29.96,SSE,158,2.3,2.4,52,0.00,CLR,,0.05,WeatherDisplay:10.37,2013-04-13 19:19:00,
2013-04-13 15:20:00,53.4,36.2,29.96,SSE,158,2.3,2.4,52,0.00,CLR,,0.05,WeatherDisplay:10.37,2013-04-13 19:20:00,
2013-04-13 15:24:00,53.4,36.2,29.96,SSE,158,2.3,2.4,52,0.00,CLR,,0.05,WeatherDisplay:10.37,2013-04-13 19:24:00,
2013-04-13 15:25:00,53.4,36.2,29.96,SSE,158,2.3,2.4,52,0.00,CLR,,0.05,WeatherDisplay:10.37,2013-04-13 19:25:00,
2013-04-13 15:26:00,53.4,36.2,29.96,SSE,158,2.3,2.4,52,0.00,CLR,,0.05,WeatherDisplay:10.37,2013-04-13 19:26:00,
2013-04-13 15:29:00,53.4,36.2,29.96,SSE,158,2.3,2.4,52,0.00,CLR,,0.05,WeatherDisplay:10.37,2013-04-13 19:29:00,
2013-04-13 15:31:00,54.7,36.4,29.96,SE,135,2.3,2.3,50,0.00,CLR,,0.05,WeatherDisplay:10.37,2013-04-13 19:31:00,
2013-04-13 15:34:00,54.7,36.4,29.96,SE,135,1.2,1.2,50,0.00,CLR,,0.05,WeatherDisplay:10.37,2013-04-13 19:34:00,
2013-04-13 15:35:00,54.7,36.4,29.96,SE,135,1.2,1.2,50,0.00,CLR,,0.05,WeatherDisplay:10.37,2013-04-13 19:35:00,
2013-04-13 15:36:00,54.7,36.4,29.96,SE,135,1.2,1.2,50,0.00,CLR,,0.05,WeatherDisplay:10.37,2013-04-13 19:36:00,
2013-04-13 15:39:00,54.7,36.4,29.96,SE,135,1.2,1.2,50,0.00,CLR,,0.05,WeatherDisplay:10.37,2013-04-13 19:39:00,
2013-04-13 15:40:00,54.7,36.4,29.96,SE,135,1.2,1.2,50,0.00,CLR,,0.05,WeatherDisplay:10.37,2013-04-13 19:40:00,
2013-04-13 15:42:00,54.7,36.4,29.96,SE,135,1.2,1.2,50,0.00,CLR,,0.05,WeatherDisplay:10.37,2013-04-13 19:42:00,
2013-04-13 15:44:00,54.7,36.4,29.96,SE,135,1.2,1.2,50,0.00,CLR,,0.05,WeatherDisplay:10.37,2013-04-13 19:44:00,
2013-04-13 15:45:00,54.7,36.4,29.96,SE,135,1.2,1.2,50,0.00,CLR,,0.05,WeatherDisplay:10.37,2013-04-13 19:45:00,
2013-04-13 15:47:00,54.7,36.4,29.96,SE,135,1.2,1.2,50,0.00,CLR,,0.05,WeatherDisplay:10.37,2013-04-13 19:47:00,
2013-04-13 15:50:00,54.7,36.4,29.96,SE,135,1.0,1.0,50,0.00,CLR,CLR,0.05,WeatherDisplay:10.37,2013-04-13 19:50:00,
2013-04-13 15:53:00,54.7,36.4,29.96,SE,135,1.2,1.2,50,0.00,CLR,,0.05,WeatherDisplay:10.37,2013-04-13 19:53:00,
2013-04-13 15:55:00,54.7,36.4,29.96,SE,135,1.0,1.0,50,0.00,CLR,CLR,0.05,WeatherDisplay:10.37,2013-04-13 19:55:00,
2013-04-13 15:59:00,54.7,36.4,29.96,SE,135,1.2,1.2,50,0.00,CLR,,0.05,WeatherDisplay:10.37,2013-04-13 19:59:00,
2013-04-13 16:00:00,54.7,36.4,29.96,SE,135,1.2,1.2,50,0.00,CLR,,0.05,WeatherDisplay:10.37,2013-04-13 20:00:00,
2013-04-13 16:04:00,55.0,37.2,29.97,NNW,338,2.3,2.4,51,0.00,CLR,,0.05,WeatherDisplay:10.37,2013-04-13 20:04:00,
2013-04-13 16:05:00,55.0,37.2,29.97,NNW,338,2.3,2.4,51,0.00,CLR,,0.05,WeatherDisplay:10.37,2013-04-13 20:05:00,
2013-04-13 16:06:00,55.0,37.2,29.97,NNW,338,2.3,2.4,51,0.00,CLR,,0.05,WeatherDisplay:10.37,2013-04-13 20:06:00,
2013-04-13 16:09:00,55.0,37.2,29.97,NNW,338,2.3,2.4,51,0.00,CLR,,0.05,WeatherDisplay:10.37,2013-04-13 20:09:00,
2013-04-13 16:10:00,55.0,37.2,29.97,NNW,338,2.3,2.4,51,0.00,CLR,,0.05,WeatherDisplay:10.37,2013-04-13 20:10:00,
2013-04-13 16:12:00,55.0,37.2,29.97,NNW,338,2.3,2.4,51,0.00,CLR,,0.05,WeatherDisplay:10.37,2013-04-13 20:12:00,
2013-04-13 16:14:00,55.0,37.2,29.97,NNW,338,2.3,2.4,51,0.00,CLR,,0.05,WeatherDisplay:10.37,2013-04-13 20:14:00,
2013-04-13 16:15:00,55.0,37.2,29.97,NNW,338,2.3,2.4,51,0.00,CLR,,0.05,WeatherDisplay:10.37,2013-04-13 20:15:00,
2013-04-13 16:17:00,55.0,37.2,29.97,NNW,338,2.3,2.4,51,0.00,CLR,,0.05,WeatherDisplay:10.37,2013-04-13 20:17:00,
2013-04-13 16:19:00,55.0,37.2,29.97,NNW,338,2.3,2.4,51,0.00,CLR,,0.05,WeatherDisplay:10.37,2013-04-13 20:19:00,
2013-04-13 16:20:00,55.0,37.2,29.97,NNW,338,2.0,2.0,51,0.00,CLR,CLR,0.05,WeatherDisplay:10.37,2013-04-13 20:20:00,
2013-04-13 16:22:00,55.0,37.2,29.97,NNW,338,2.3,2.4,51,0.00,CLR,,0.05,WeatherDisplay:10.37,2013-04-13 20:22:00,
2013-04-13 16:24:00,55.0,37.2,29.97,NNW,338,2.3,2.4,51,0.00,CLR,,0.05,WeatherDisplay:10.37,2013-04-13 20:24:00,
2013-04-13 16:25:00,55.0,37.2,29.97,NNW,338,2.0,2.0,51,0.00,CLR,CLR,0.05,WeatherDisplay:10.37,2013-04-13 20:25:00,
2013-04-13 16:27:00,55.0,37.2,29.97,NNW,338,2.3,2.4,51,0.00,CLR,,0.05,WeatherDisplay:10.37,2013-04-13 20:27:00,
2013-04-13 16:29:00,55.0,37.2,29.97,NNW,338,2.3,2.4,51,0.00,CLR,,0.05,WeatherDisplay:10.37,2013-04-13 20:29:00,
2013-04-13 16:30:00,55.0,37.2,29.97,NNW,338,2.3,2.4,51,0.00,CLR,,0.05,WeatherDisplay:10.37,2013-04-13 20:30:00,
2013-04-13 16:31:00,55.0,36.7,29.97,NW,315,2.3,2.3,50,0.00,CLR,,0.05,WeatherDisplay:10.37,2013-04-13 20:31:00,
2013-04-13 16:33:00,55.0,36.7,29.97,NW,315,1.2,1.2,50,0.00,CLR,,0.05,WeatherDisplay:10.37,2013-04-13 20:33:00,
2013-04-13 16:34:00,55.0,36.7,29.97,NW,315,1.2,1.2,50,0.00,CLR,,0.05,WeatherDisplay:10.37,2013-04-13 20:34:00,
2013-04-13 16:35:00,55.0,36.7,29.97,NW,315,1.2,1.2,50,0.00,CLR,,0.05,WeatherDisplay:10.37,2013-04-13 20:35:00,
2013-04-13 16:36:00,55.0,36.7,29.97,NW,315,1.2,1.2,50,0.00,CLR,,0.05,WeatherDisplay:10.37,2013-04-13 20:36:00,
2013-04-13 16:38:00,55.0,36.7,29.97,NW,315,1.2,1.2,50,0.00,CLR,,0.05,WeatherDisplay:10.37,2013-04-13 20:38:00,
2013-04-13 16:40:00,55.0,36.7,29.97,NW,319,1.0,1.0,50,0.00,CLR,CLR,0.05,WeatherDisplay:10.37,2013-04-13 20:40:00,
2013-04-13 16:41:00,55.0,36.7,29.97,NW,315,1.2,1.2,50,0.00,CLR,,0.05,WeatherDisplay:10.37,2013-04-13 20:41:00,
2013-04-13 16:43:00,55.0,36.7,29.97,NW,315,1.2,1.2,50,0.00,CLR,,0.05,WeatherDisplay:10.37,2013-04-13 20:43:00,
2013-04-13 16:45:00,55.0,36.7,29.97,NW,315,1.2,1.2,50,0.00,CLR,,0.05,WeatherDisplay:10.37,2013-04-13 20:45:00,
2013-04-13 16:46:00,55.0,36.7,29.97,NW,315,1.2,1.2,50,0.00,CLR,,0.05,WeatherDisplay:10.37,2013-04-13 20:46:00,
2013-04-13 16:48:00,55.0,36.7,29.97,NW,315,1.2,1.2,50,0.00,CLR,,0.05,WeatherDisplay:10.37,2013-04-13 20:48:00,
2013-04-13 16:50:00,55.0,36.7,29.97,NW,315,1.2,1.2,50,0.00,CLR,,0.05,WeatherDisplay:10.37,2013-04-13 20:50:00,
2013-04-13 16:52:00,55.0,36.7,29.97,NW,315,1.2,1.2,50,0.00,CLR,,0.05,WeatherDisplay:10.37,2013-04-13 20:52:00,
2013-04-13 16:53:00,55.0,36.7,29.97,NW,315,1.2,1.2,50,0.00,CLR,,0.05,WeatherDisplay:10.37,2013-04-13 20:53:00,
2013-04-13 16:55:00,55.0,36.7,29.97,NW,315,1.2,1.2,50,0.00,CLR,,0.05,WeatherDisplay:10.37,2013-04-13 20:55:00,
2013-04-13 16:57:00,55.0,36.7,29.97,NW,315,1.2,1.2,50,0.00,CLR,,0.05,WeatherDisplay:10.37,2013-04-13 20:57:00,
2013-04-13 16:58:00,55.0,36.7,29.97,NW,315,1.2,1.2,50,0.00,CLR,,0.05,WeatherDisplay:10.37,2013-04-13 20:58:00,
2013-04-13 17:00:00,55.6,37.7,29.95,NNW,338,1.2,1.2,51,0.00,CLR,,0.05,WeatherDisplay:10.37,2013-04-13 21:00:00,
2013-04-13 17:02:00,55.6,37.7,29.95,NNW,338,1.2,1.2,51,0.00,CLR,,0.05,WeatherDisplay:10.37,2013-04-13 21:02:00,
2013-04-13 17:03:00,55.6,37.7,29.95,NNW,338,1.2,1.2,51,0.00,CLR,,0.05,WeatherDisplay:10.37,2013-04-13 21:03:00,
2013-04-13 17:05:00,55.6,37.7,29.95,NNW,338,1.2,1.2,51,0.00,CLR,,0.05,WeatherDisplay:10.37,2013-04-13 21:05:00,
2013-04-13 17:07:00,55.6,37.7,29.95,NNW,338,1.2,1.2,51,0.00,CLR,,0.05,WeatherDisplay:10.37,2013-04-13 21:07:00,
2013-04-13 17:08:00,55.6,37.7,29.95,NNW,338,1.2,1.2,51,0.00,CLR,,0.05,WeatherDisplay:10.37,2013-04-13 21:08:00,
2013-04-13 17:10:00,55.6,37.7,29.95,NNW,338,1.2,1.2,51,0.00,CLR,,0.05,WeatherDisplay:10.37,2013-04-13 21:10:00,
2013-04-13 17:12:00,55.6,37.7,29.95,NNW,338,1.2,1.2,51,0.00,CLR,,0.05,WeatherDisplay:10.37,2013-04-13 21:12:00,
2013-04-13 17:13:00,55.6,37.7,29.95,NNW,338,1.2,1.2,51,0.00,CLR,,0.05,WeatherDisplay:10.37,2013-04-13 21:13:00,
2013-04-13 17:15:00,55.6,37.7,29.95,NNW,338,1.2,1.2,51,0.00,CLR,,0.05,WeatherDisplay:10.37,2013-04-13 21:15:00,
2013-04-13 17:17:00,55.6,37.7,29.95,NNW,338,1.2,1.2,51,0.00,CLR,,0.05,WeatherDisplay:10.37,2013-04-13 21:17:00,
2013-04-13 17:18:00,55.6,37.7,29.95,NNW,338,1.2,1.2,51,0.00,CLR,,0.05,WeatherDisplay:10.37,2013-04-13 21:18:00,
2013-04-13 17:21:00,55.6,37.7,29.95,NNW,338,1.2,1.2,51,0.00,CLR,,0.05,WeatherDisplay:10.37,2013-04-13 21:21:00,
2013-04-13 17:22:00,55.6,37.7,29.95,NNW,338,1.2,1.2,51,0.00,CLR,,0.05,WeatherDisplay:10.37,2013-04-13 21:22:00,
2013-04-13 17:23:00,55.6,37.7,29.95,NNW,338,1.2,1.2,51,0.00,CLR,,0.05,WeatherDisplay:10.37,2013-04-13 21:23:00,
2013-04-13 17:27:00,55.6,37.7,29.95,NNW,338,1.2,1.2,51,0.00,CLR,,0.05,WeatherDisplay:10.37,2013-04-13 21:27:00,
2013-04-13 17:28:00,55.6,37.7,29.95,NNW,338,1.2,1.2,51,0.00,CLR,,0.05,WeatherDisplay:10.37,2013-04-13 21:28:00,
2013-04-13 17:29:00,55.6,37.7,29.95,NNW,338,1.2,1.2,51,0.00,CLR,,0.05,WeatherDisplay:10.37,2013-04-13 21:29:00,
2013-04-13 17:32:00,54.9,36.6,29.96,SSE,158,1.2,1.2,50,0.00,CLR,,0.05,WeatherDisplay:10.37,2013-04-13 21:32:00,
2013-04-13 17:33:00,54.9,36.6,29.96,SSE,158,1.2,1.2,50,0.00,CLR,,0.05,WeatherDisplay:10.37,2013-04-13 21:33:00,
2013-04-13 17:34:00,54.9,36.6,29.96,SSE,158,1.2,1.2,50,0.00,CLR,,0.05,WeatherDisplay:10.37,2013-04-13 21:34:00,
2013-04-13 17:38:00,54.9,36.6,29.96,SSE,158,1.2,1.2,50,0.00,CLR,,0.05,WeatherDisplay:10.37,2013-04-13 21:38:00,
2013-04-13 17:39:00,54.9,36.6,29.96,SSE,158,1.2,1.2,50,0.00,CLR,,0.05,WeatherDisplay:10.37,2013-04-13 21:39:00,
2013-04-13 17:43:00,54.9,36.6,29.96,SSE,158,1.2,1.2,50,0.00,CLR,,0.05,WeatherDisplay:10.37,2013-04-13 21:43:00,
2013-04-13 17:44:00,54.9,36.6,29.96,SSE,158,1.2,1.2,50,0.00,CLR,,0.05,WeatherDisplay:10.37,2013-04-13 21:44:00,
2013-04-13 17:48:00,54.9,36.6,29.96,SSE,158,1.2,1.2,50,0.00,CLR,,0.05,WeatherDisplay:10.37,2013-04-13 21:48:00,
2013-04-13 17:49:00,54.9,36.6,29.96,SSE,158,1.2,1.2,50,0.00,CLR,,0.05,WeatherDisplay:10.37,2013-04-13 21:49:00,
2013-04-13 17:53:00,54.9,36.6,29.96,SSE,158,1.2,1.2,50,0.00,CLR,,0.05,WeatherDisplay:10.37,2013-04-13 21:53:00,
2013-04-13 17:54:00,54.9,36.6,29.96,SSE,158,1.2,1.2,50,0.00,CLR,,0.05,WeatherDisplay:10.37,2013-04-13 21:54:00,
2013-04-13 17:58:00,54.9,36.6,29.96,SSE,158,1.2,1.2,50,0.00,CLR,,0.05,WeatherDisplay:10.37,2013-04-13 21:58:00,
2013-04-13 17:59:00,54.9,36.6,29.96,SSE,158,1.2,1.2,50,0.00,CLR,,0.05,WeatherDisplay:10.37,2013-04-13 21:59:00,
2013-04-13 18:03:00,54.3,36.6,29.97,WNW,292,0.0,0.0,51,0.00,CLR,,0.05,WeatherDisplay:10.37,2013-04-13 22:03:00,
2013-04-13 18:04:00,54.3,36.6,29.97,WNW,292,0.0,0.0,51,0.00,CLR,,0.05,WeatherDisplay:10.37,2013-04-13 22:04:00,
2013-04-13 18:05:00,54.3,36.6,29.97,WNW,292,0.0,0.0,51,0.00,CLR,,0.05,WeatherDisplay:10.37,2013-04-13 22:05:00,
2013-04-13 18:09:00,54.3,36.6,29.97,WNW,292,0.0,0.0,51,0.00,CLR,,0.05,WeatherDisplay:10.37,2013-04-13 22:09:00,
2013-04-13 18:10:00,54.3,36.6,29.97,WNW,292,0.0,0.0,51,0.00,CLR,,0.05,WeatherDisplay:10.37,2013-04-13 22:10:00,
2013-04-13 18:13:00,54.3,36.6,29.97,WNW,292,0.0,0.0,51,0.00,CLR,,0.05,WeatherDisplay:10.37,2013-04-13 22:13:00,
2013-04-13 18:14:00,54.3,36.6,29.97,WNW,292,0.0,0.0,51,0.00,CLR,,0.05,WeatherDisplay:10.37,2013-04-13 22:14:00,
2013-04-13 18:15:00,54.3,36.6,29.97,WNW,292,0.0,0.0,51,0.00,CLR,,0.05,WeatherDisplay:10.37,2013-04-13 22:15:00,
2013-04-13 18:19:00,54.3,36.6,29.97,WNW,292,0.0,0.0,51,0.00,CLR,,0.05,WeatherDisplay:10.37,2013-04-13 22:19:00,
2013-04-13 18:20:00,54.3,36.6,29.97,WNW,292,0.0,0.0,51,0.00,CLR,,0.05,WeatherDisplay:10.37,2013-04-13 22:20:00,
2013-04-13 18:24:00,54.3,36.6,29.97,WNW,292,0.0,0.0,51,0.00,CLR,,0.05,WeatherDisplay:10.37,2013-04-13 22:24:00,
2013-04-13 18:25:00,54.3,36.6,29.97,WNW,292,0.0,0.0,51,0.00,CLR,,0.05,WeatherDisplay:10.37,2013-04-13 22:25:00,
2013-04-13 18:29:00,54.3,36.6,29.97,WNW,292,0.0,0.0,51,0.00,CLR,,0.05,WeatherDisplay:10.37,2013-04-13 22:29:00,
2013-04-13 18:30:00,54.3,36.6,29.97,WNW,292,0.0,0.0,51,0.00,CLR,,0.05,WeatherDisplay:10.37,2013-04-13 22:30:00,
2013-04-13 18:31:00,54.0,37.2,29.95,NNW,338,0.0,2.4,53,0.00,CLR,,0.05,WeatherDisplay:10.37,2013-04-13 22:31:00,
2013-04-13 18:34:00,54.0,37.2,29.95,NNW,338,2.3,2.4,53,0.00,CLR,,0.05,WeatherDisplay:10.37,2013-04-13 22:34:00,
2013-04-13 18:35:00,54.0,37.2,29.95,NNW,338,2.3,2.4,53,0.00,CLR,,0.05,WeatherDisplay:10.37,2013-04-13 22:35:00,
2013-04-13 18:37:00,54.0,37.2,29.95,NNW,338,2.3,2.4,53,0.00,CLR,,0.05,WeatherDisplay:10.37,2013-04-13 22:37:00,
2013-04-13 18:39:00,54.0,37.2,29.95,NNW,338,2.3,2.4,53,0.00,CLR,,0.05,WeatherDisplay:10.37,2013-04-13 22:39:00,
2013-04-13 18:40:00,54.0,37.2,29.95,NNW,338,2.3,2.4,53,0.00,CLR,,0.05,WeatherDisplay:10.37,2013-04-13 22:40:00,
2013-04-13 18:41:00,54.0,37.2,29.95,NNW,338,2.3,2.4,53,0.00,CLR,,0.05,WeatherDisplay:10.37,2013-04-13 22:41:00,
2013-04-13 18:42:00,54.0,37.2,29.95,NNW,338,2.3,2.4,53,0.00,CLR,,0.05,WeatherDisplay:10.37,2013-04-13 22:42:00,
2013-04-13 18:44:00,54.0,37.2,29.95,NNW,338,2.3,2.4,53,0.00,CLR,,0.05,WeatherDisplay:10.37,2013-04-13 22:44:00,
2013-04-13 18:45:00,54.0,37.2,29.95,NNW,338,2.3,2.4,53,0.00,CLR,,0.05,WeatherDisplay:10.37,2013-04-13 22:45:00,
2013-04-13 18:47:00,54.0,37.2,29.95,NNW,338,2.3,2.4,53,0.00,CLR,,0.05,WeatherDisplay:10.37,2013-04-13 22:47:00,
2013-04-13 18:49:00,54.0,37.2,29.95,NNW,338,2.3,2.4,53,0.00,CLR,,0.05,WeatherDisplay:10.37,2013-04-13 22:49:00,
2013-04-13 18:50:00,54.0,37.2,29.95,NNW,338,2.3,2.4,53,0.00,CLR,,0.05,WeatherDisplay:10.37,2013-04-13 22:50:00,
2013-04-13 18:52:00,54.0,37.2,29.95,NNW,338,2.3,2.4,53,0.00,CLR,,0.05,WeatherDisplay:10.37,2013-04-13 22:52:00,
2013-04-13 18:53:00,54.0,37.2,29.95,NNW,338,2.3,2.4,53,0.00,CLR,,0.05,WeatherDisplay:10.37,2013-04-13 22:53:00,
2013-04-13 18:54:00,54.0,37.2,29.95,NNW,338,2.3,2.4,53,0.00,CLR,,0.05,WeatherDisplay:10.37,2013-04-13 22:54:00,
2013-04-13 18:56:00,54.0,37.2,29.95,NNW,338,2.3,2.4,53,0.00,CLR,,0.05,WeatherDisplay:10.37,2013-04-13 22:56:00,
2013-04-13 18:57:00,54.0,37.2,29.95,NNW,338,2.3,2.4,53,0.00,CLR,,0.05,WeatherDisplay:10.37,2013-04-13 22:57:00,
2013-04-13 18:58:00,54.0,37.2,29.95,NNW,338,2.4,2.4,53,0.00,CLR,,0.05,WeatherDisplay:10.37,2013-04-13 22:58:00,
2013-04-13 18:59:00,54.0,37.2,29.95,NNW,338,2.3,2.4,53,0.00,CLR,,0.05,WeatherDisplay:10.37,2013-04-13 22:59:00,
2013-04-13 19:01:00,53.4,37.6,29.97,NNW,338,3.5,3.8,55,0.00,CLR,,0.05,WeatherDisplay:10.37,2013-04-13 23:01:00,
2013-04-13 19:02:00,53.4,37.6,29.97,NNW,338,3.5,3.8,55,0.00,CLR,,0.05,WeatherDisplay:10.37,2013-04-13 23:02:00,
2013-04-13 19:03:00,53.4,37.6,29.97,NNW,338,3.5,3.8,55,0.00,CLR,,0.05,WeatherDisplay:10.37,2013-04-13 23:03:00,
2013-04-13 19:04:00,53.4,37.6,29.97,NNW,338,3.5,3.8,55,0.00,CLR,,0.05,WeatherDisplay:10.37,2013-04-13 23:04:00,
2013-04-13 19:07:00,53.4,37.6,29.97,NNW,338,3.5,3.8,55,0.00,CLR,,0.05,WeatherDisplay:10.37,2013-04-13 23:07:00,
2013-04-13 19:08:00,53.4,37.6,29.97,NNW,338,3.5,3.8,55,0.00,CLR,,0.05,WeatherDisplay:10.37,2013-04-13 23:08:00,
2013-04-13 19:09:00,53.4,37.6,29.97,NNW,338,3.5,3.8,55,0.00,CLR,,0.05,WeatherDisplay:10.37,2013-04-13 23:09:00,
2013-04-13 19:12:00,53.4,37.6,29.97,NNW,338,3.5,3.8,55,0.00,CLR,,0.05,WeatherDisplay:10.37,2013-04-13 23:12:00,
2013-04-13 19:13:00,53.4,37.6,29.97,NNW,338,3.5,3.8,55,0.00,CLR,,0.05,WeatherDisplay:10.37,2013-04-13 23:13:00,
2013-04-13 19:14:00,53.4,37.6,29.97,NNW,338,3.5,3.8,55,0.00,CLR,,0.05,WeatherDisplay:10.37,2013-04-13 23:14:00,
2013-04-13 19:17:00,53.4,37.6,29.97,NNW,338,3.5,3.8,55,0.00,CLR,,0.05,WeatherDisplay:10.37,2013-04-13 23:17:00,
2013-04-13 19:18:00,53.4,37.6,29.97,NNW,338,3.5,3.8,55,0.00,CLR,,0.05,WeatherDisplay:10.37,2013-04-13 23:18:00,
2013-04-13 19:19:00,53.4,37.6,29.97,NNW,338,3.5,3.8,55,0.00,CLR,,0.05,WeatherDisplay:10.37,2013-04-13 23:19:00,
2013-04-13 19:22:00,53.4,37.6,29.97,NNW,338,3.5,3.8,55,0.00,CLR,,0.05,WeatherDisplay:10.37,2013-04-13 23:22:00,
2013-04-13 19:23:00,53.4,37.6,29.97,NNW,338,3.5,3.8,55,0.00,CLR,,0.05,WeatherDisplay:10.37,2013-04-13 23:23:00,
2013-04-13 19:24:00,53.4,37.6,29.97,NNW,338,3.5,3.8,55,0.00,CLR,,0.05,WeatherDisplay:10.37,2013-04-13 23:24:00,
2013-04-13 19:25:00,53.4,37.6,29.97,NNW,338,3.5,3.8,55,0.00,CLR,,0.05,WeatherDisplay:10.37,2013-04-13 23:25:00,
2013-04-13 19:27:00,53.4,37.6,29.97,NNW,338,3.8,3.8,55,0.00,CLR,,0.05,WeatherDisplay:10.37,2013-04-13 23:27:00,
2013-04-13 19:28:00,53.4,37.6,29.97,NNW,338,3.5,3.8,55,0.00,CLR,,0.05,WeatherDisplay:10.37,2013-04-13 23:28:00,
2013-04-13 19:29:00,53.4,37.6,29.97,NNW,338,3.5,3.8,55,0.00,CLR,,0.05,WeatherDisplay:10.37,2013-04-13 23:29:00,
2013-04-13 19:30:00,53.4,37.6,29.97,NNW,338,3.5,3.8,55,0.00,CLR,,0.05,WeatherDisplay:10.37,2013-04-13 23:30:00,
2013-04-13 19:32:00,52.5,37.3,29.98,NW,315,2.3,2.3,56,0.00,CLR,,0.05,WeatherDisplay:10.37,2013-04-13 23:32:00,
2013-04-13 19:33:00,52.5,37.3,29.98,NW,315,2.3,2.3,56,0.00,CLR,,0.05,WeatherDisplay:10.37,2013-04-13 23:33:00,
2013-04-13 19:34:00,52.5,37.3,29.98,NW,315,2.3,2.3,56,0.00,CLR,,0.05,WeatherDisplay:10.37,2013-04-13 23:34:00,
2013-04-13 19:35:00,52.5,37.3,29.98,NW,315,2.3,2.3,56,0.00,CLR,,0.05,WeatherDisplay:10.37,2013-04-13 23:35:00,
2013-04-13 19:37:00,52.5,37.3,29.98,NW,315,2.3,2.3,56,0.00,CLR,,0.05,WeatherDisplay:10.37,2013-04-13 23:37:00,
2013-04-13 19:38:00,52.5,37.3,29.98,NW,315,2.3,2.3,56,0.00,CLR,,0.05,WeatherDisplay:10.37,2013-04-13 23:38:00,
2013-04-13 19:39:00,52.5,37.3,29.98,NW,315,2.3,2.3,56,0.00,CLR,,0.05,WeatherDisplay:10.37,2013-04-13 23:39:00,
2013-04-13 19:41:00,52.5,37.3,29.98,NW,315,2.3,2.3,56,0.00,CLR,,0.05,WeatherDisplay:10.37,2013-04-13 23:41:00,
2013-04-13 19:43:00,52.5,37.3,29.98,NW,315,2.3,2.3,56,0.00,CLR,,0.05,WeatherDisplay:10.37,2013-04-13 23:43:00,
2013-04-13 19:44:00,52.5,37.3,29.98,NW,315,2.3,2.3,56,0.00,CLR,,0.05,WeatherDisplay:10.37,2013-04-13 23:44:00,
2013-04-13 19:46:00,52.5,37.3,29.98,NW,315,2.3,2.3,56,0.00,CLR,,0.05,WeatherDisplay:10.37,2013-04-13 23:46:00,
2013-04-13 19:48:00,52.5,37.3,29.98,NW,315,2.3,2.3,56,0.00,CLR,,0.05,WeatherDisplay:10.37,2013-04-13 23:48:00,
2013-04-13 19:49:00,52.5,37.3,29.98,NW,315,2.3,2.3,56,0.00,CLR,,0.05,WeatherDisplay:10.37,2013-04-13 23:49:00,
2013-04-13 19:50:00,52.5,37.3,29.98,NW,315,2.3,2.3,56,0.00,CLR,,0.05,WeatherDisplay:10.37,2013-04-13 23:50:00,
2013-04-13 19:51:00,52.5,37.3,29.98,NW,315,2.3,2.3,56,0.00,CLR,,0.05,WeatherDisplay:10.37,2013-04-13 23:51:00,
2013-04-13 19:53:00,52.5,37.3,29.98,NW,315,2.3,2.3,56,0.00,CLR,,0.05,WeatherDisplay:10.37,2013-04-13 23:53:00,
2013-04-13 19:54:00,52.5,37.3,29.98,NW,315,2.3,2.3,56,0.00,CLR,,0.05,WeatherDisplay:10.37,2013-04-13 23:54:00,
2013-04-13 19:55:00,52.5,37.3,29.98,NW,315,2.0,2.0,56,0.00,CLR,CLR,0.05,WeatherDisplay:10.37,2013-04-13 23:55:00,
2013-04-13 19:56:00,52.5,37.3,29.98,NW,315,2.3,2.3,56,0.00,CLR,,0.05,WeatherDisplay:10.37,2013-04-13 23:56:00,
2013-04-13 19:58:00,52.5,37.3,29.98,NW,315,2.3,2.3,56,0.00,CLR,,0.05,WeatherDisplay:10.37,2013-04-13 23:58:00,
2013-04-13 19:59:00,52.5,37.3,29.98,NW,315,2.3,2.3,56,0.00,CLR,,0.05,WeatherDisplay:10.37,2013-04-13 23:59:00,
2013-04-13 20:00:00,52.5,37.3,29.98,NW,315,2.3,2.3,56,0.00,CLR,,0.05,WeatherDisplay:10.37,2013-04-14 00:00:00,
2013-04-13 20:01:00,52.2,37.4,29.99,NW,315,2.3,2.3,57,0.00,CLR,,0.05,WeatherDisplay:10.37,2013-04-14 00:01:00,
2013-04-13 20:03:00,52.2,37.4,29.99,NW,315,0.0,0.5,57,0.00,CLR,,0.05,WeatherDisplay:10.37,2013-04-14 00:03:00,
2013-04-13 20:04:00,52.2,37.4,29.99,NW,315,0.0,0.5,57,0.00,CLR,,0.05,WeatherDisplay:10.37,2013-04-14 00:04:00,
2013-04-13 20:05:00,52.2,37.4,29.99,NW,315,0.0,0.5,57,0.00,CLR,,0.05,WeatherDisplay:10.37,2013-04-14 00:05:00,
2013-04-13 20:06:00,52.2,37.4,29.99,NW,315,0.0,0.5,57,0.00,CLR,,0.05,WeatherDisplay:10.37,2013-04-14 00:06:00,
2013-04-13 20:09:00,52.2,37.4,29.99,NW,315,0.0,0.5,57,0.00,CLR,,0.05,WeatherDisplay:10.37,2013-04-14 00:09:00,
2013-04-13 20:10:00,52.2,37.4,29.99,NW,315,0.0,0.5,57,0.00,CLR,,0.05,WeatherDisplay:10.37,2013-04-14 00:10:00,
2013-04-13 20:12:00,52.2,37.4,29.99,NW,315,0.0,0.5,57,0.00,CLR,,0.05,WeatherDisplay:10.37,2013-04-14 00:12:00,
2013-04-13 20:14:00,52.2,37.4,29.99,NW,315,0.0,0.5,57,0.00,CLR,,0.05,WeatherDisplay:10.37,2013-04-14 00:14:00,
2013-04-13 20:16:00,52.2,37.4,29.99,NW,315,0.0,0.5,57,0.00,CLR,,0.05,WeatherDisplay:10.37,2013-04-14 00:16:00,
2013-04-13 20:17:00,52.2,37.4,29.99,NW,315,0.0,0.5,57,0.00,CLR,,0.05,WeatherDisplay:10.37,2013-04-14 00:17:00,
2013-04-13 20:19:00,52.2,37.4,29.99,NW,315,0.5,0.5,57,0.00,CLR,,0.05,WeatherDisplay:10.37,2013-04-14 00:19:00,
2013-04-13 20:21:00,52.2,37.4,29.99,NW,315,0.0,0.5,57,0.00,CLR,,0.05,WeatherDisplay:10.37,2013-04-14 00:21:00,
2013-04-13 20:22:00,52.2,37.4,29.99,NW,315,0.0,0.5,57,0.00,CLR,,0.05,WeatherDisplay:10.37,2013-04-14 00:22:00,
2013-04-13 20:24:00,52.2,37.4,29.99,NW,315,0.0,0.5,57,0.00,CLR,,0.05,WeatherDisplay:10.37,2013-04-14 00:24:00,
2013-04-13 20:26:00,52.2,37.4,29.99,NW,315,0.0,0.5,57,0.00,CLR,,0.05,WeatherDisplay:10.37,2013-04-14 00:26:00,
2013-04-13 20:27:00,52.2,37.4,29.99,NW,315,0.0,0.5,57,0.00,CLR,,0.05,WeatherDisplay:10.37,2013-04-14 00:27:00,
2013-04-13 20:29:00,52.2,37.4,29.99,NW,315,0.0,0.5,57,0.00,CLR,,0.05,WeatherDisplay:10.37,2013-04-14 00:29:00,
2013-04-13 20:32:00,51.8,37.5,29.99,WNW,292,1.2,1.2,58,0.00,CLR,,0.05,WeatherDisplay:10.37,2013-04-14 00:32:00,
2013-04-13 20:35:00,51.8,37.5,29.99,WNW,292,1.2,1.2,58,0.00,CLR,,0.05,WeatherDisplay:10.37,2013-04-14 00:35:00,
2013-04-13 20:37:00,51.8,37.5,29.99,WNW,292,1.2,1.2,58,0.00,CLR,,0.05,WeatherDisplay:10.37,2013-04-14 00:37:00,
2013-04-13 20:38:00,51.8,37.5,29.99,WNW,292,1.2,1.2,58,0.00,CLR,,0.05,WeatherDisplay:10.37,2013-04-14 00:38:00,
2013-04-13 20:40:00,51.8,37.5,29.99,WNW,292,1.2,1.2,58,0.00,CLR,,0.05,WeatherDisplay:10.37,2013-04-14 00:40:00,
2013-04-13 20:42:00,51.8,37.5,29.99,WNW,292,1.2,1.2,58,0.00,CLR,,0.05,WeatherDisplay:10.37,2013-04-14 00:42:00,
2013-04-13 20:43:00,51.8,37.5,29.99,WNW,292,1.2,1.2,58,0.00,CLR,,0.05,WeatherDisplay:10.37,2013-04-14 00:43:00,
2013-04-13 20:45:00,51.8,37.5,29.99,WNW,292,1.2,1.2,58,0.00,CLR,,0.05,WeatherDisplay:10.37,2013-04-14 00:45:00,
2013-04-13 20:47:00,51.8,37.5,29.99,WNW,292,1.2,1.2,58,0.00,CLR,,0.05,WeatherDisplay:10.37,2013-04-14 00:47:00,
2013-04-13 20:48:00,51.8,37.5,29.99,WNW,292,1.2,1.2,58,0.00,CLR,,0.05,WeatherDisplay:10.37,2013-04-14 00:48:00,
2013-04-13 20:50:00,51.8,37.5,29.99,WNW,292,1.2,1.2,58,0.00,CLR,,0.05,WeatherDisplay:10.37,2013-04-14 00:50:00,
2013-04-13 20:51:00,51.8,37.5,29.99,WNW,292,1.2,1.2,58,0.00,CLR,,0.05,WeatherDisplay:10.37,2013-04-14 00:51:00,
2013-04-13 20:52:00,51.8,37.5,29.99,WNW,292,1.2,1.2,58,0.00,CLR,,0.05,WeatherDisplay:10.37,2013-04-14 00:52:00,
2013-04-13 20:54:00,51.8,37.5,29.99,WNW,292,1.2,1.2,58,0.00,CLR,,0.05,WeatherDisplay:10.37,2013-04-14 00:54:00,
2013-04-13 20:55:00,51.8,37.5,29.99,WNW,292,1.2,1.2,58,0.00,CLR,,0.05,WeatherDisplay:10.37,2013-04-14 00:55:00,
2013-04-13 20:56:00,51.8,37.5,29.99,WNW,292,1.2,1.2,58,0.00,CLR,,0.05,WeatherDisplay:10.37,2013-04-14 00:56:00,
2013-04-13 20:57:00,51.8,37.5,29.99,WNW,292,1.2,1.2,58,0.00,CLR,,0.05,WeatherDisplay:10.37,2013-04-14 00:57:00,
2013-04-13 20:59:00,51.8,37.5,29.99,WNW,292,1.2,1.2,58,0.00,CLR,,0.05,WeatherDisplay:10.37,2013-04-14 00:59:00,
2013-04-13 21:00:00,51.6,37.7,29.99,WNW,292,1.2,1.2,59,0.00,CLR,,0.05,WeatherDisplay:10.37,2013-04-14 01:00:00,
2013-04-13 21:01:00,51.6,37.7,29.99,WNW,292,1.2,1.2,59,0.00,CLR,,0.05,WeatherDisplay:10.37,2013-04-14 01:01:00,
2013-04-13 21:02:00,51.6,37.7,29.99,WNW,292,0.0,0.2,59,0.00,CLR,,0.05,WeatherDisplay:10.37,2013-04-14 01:02:00,
2013-04-13 21:04:00,51.6,37.7,29.99,WNW,292,0.0,0.2,59,0.00,CLR,,0.05,WeatherDisplay:10.37,2013-04-14 01:04:00,
2013-04-13 21:05:00,51.6,37.7,29.99,WNW,292,0.0,0.2,59,0.00,CLR,,0.05,WeatherDisplay:10.37,2013-04-14 01:05:00,
2013-04-13 21:06:00,51.6,37.7,29.99,WNW,292,0.0,0.2,59,0.00,CLR,,0.05,WeatherDisplay:10.37,2013-04-14 01:06:00,
2013-04-13 21:07:00,51.6,37.7,29.99,WNW,292,0.0,0.2,59,0.00,CLR,,0.05,WeatherDisplay:10.37,2013-04-14 01:07:00,
2013-04-13 21:09:00,51.6,37.7,29.99,WNW,292,0.0,0.2,59,0.00,CLR,,0.05,WeatherDisplay:10.37,2013-04-14 01:09:00,
2013-04-13 21:10:00,51.6,37.7,29.99,WNW,292,0.0,0.2,59,0.00,CLR,,0.05,WeatherDisplay:10.37,2013-04-14 01:10:00,
2013-04-13 21:11:00,51.6,37.7,29.99,WNW,292,0.0,0.2,59,0.00,CLR,,0.05,WeatherDisplay:10.37,2013-04-14 01:11:00,
2013-04-13 21:12:00,51.6,37.7,29.99,WNW,292,0.0,0.2,59,0.00,CLR,,0.05,WeatherDisplay:10.37,2013-04-14 01:12:00,
2013-04-13 21:15:00,51.6,37.7,29.99,WNW,292,0.0,0.0,59,0.00,CLR,CLR,0.05,WeatherDisplay:10.37,2013-04-14 01:15:00,
2013-04-13 21:18:00,51.6,37.7,29.99,WNW,292,0.0,0.2,59,0.00,CLR,,0.05,WeatherDisplay:10.37,2013-04-14 01:18:00,
2013-04-13 21:20:00,51.6,37.7,29.99,WNW,292,0.0,0.2,59,0.00,CLR,,0.05,WeatherDisplay:10.37,2013-04-14 01:20:00,
2013-04-13 21:23:00,51.6,37.7,29.99,WNW,292,0.0,0.2,59,0.00,CLR,,0.05,WeatherDisplay:10.37,2013-04-14 01:23:00,
2013-04-13 21:25:00,51.6,37.7,29.99,WNW,292,0.0,0.2,59,0.00,CLR,,0.05,WeatherDisplay:10.37,2013-04-14 01:25:00,
2013-04-13 21:29:00,51.6,37.7,29.99,WNW,292,0.0,0.2,59,0.00,CLR,,0.05,WeatherDisplay:10.37,2013-04-14 01:29:00,
2013-04-13 21:30:00,51.6,37.7,29.99,WNW,292,0.0,0.2,59,0.00,CLR,,0.05,WeatherDisplay:10.37,2013-04-14 01:30:00,
2013-04-13 21:31:00,51.1,37.2,30.01,North,0,0.0,0.2,59,0.00,CLR,,0.05,WeatherDisplay:10.37,2013-04-14 01:31:00,
2013-04-13 21:34:00,51.1,37.2,30.01,North,0,0.0,0.2,59,0.00,CLR,,0.05,WeatherDisplay:10.37,2013-04-14 01:34:00,
2013-04-13 21:35:00,51.1,37.2,30.01,North,0,0.0,0.2,59,0.00,CLR,,0.05,WeatherDisplay:10.37,2013-04-14 01:35:00,
2013-04-13 21:36:00,51.1,37.2,30.01,North,0,0.0,0.2,59,0.00,CLR,,0.05,WeatherDisplay:10.37,2013-04-14 01:36:00,
2013-04-13 21:39:00,51.1,37.2,30.01,North,0,0.0,0.2,59,0.00,CLR,,0.05,WeatherDisplay:10.37,2013-04-14 01:39:00,
2013-04-13 21:40:00,51.1,37.2,30.01,North,0,0.0,0.2,59,0.00,CLR,,0.05,WeatherDisplay:10.37,2013-04-14 01:40:00,
2013-04-13 21:42:00,51.1,37.2,30.01,North,0,0.0,0.2,59,0.00,CLR,,0.05,WeatherDisplay:10.37,2013-04-14 01:42:00,
2013-04-13 21:44:00,51.1,37.2,30.01,North,0,0.0,0.2,59,0.00,CLR,,0.05,WeatherDisplay:10.37,2013-04-14 01:44:00,
2013-04-13 21:45:00,51.1,37.2,30.01,North,0,0.0,0.2,59,0.00,CLR,,0.05,WeatherDisplay:10.37,2013-04-14 01:45:00,
2013-04-13 21:46:00,51.1,37.2,30.01,North,0,0.0,0.2,59,0.00,CLR,,0.05,WeatherDisplay:10.37,2013-04-14 01:46:00,
2013-04-13 21:47:00,51.1,37.2,30.01,North,0,0.0,0.2,59,0.00,CLR,,0.05,WeatherDisplay:10.37,2013-04-14 01:47:00,
2013-04-13 21:49:00,51.1,37.2,30.01,North,0,0.0,0.2,59,0.00,CLR,,0.05,WeatherDisplay:10.37,2013-04-14 01:49:00,
2013-04-13 21:50:00,51.1,37.2,30.01,North,0,0.0,0.2,59,0.00,CLR,,0.05,WeatherDisplay:10.37,2013-04-14 01:50:00,
2013-04-13 21:51:00,51.1,37.2,30.01,North,0,0.0,0.2,59,0.00,CLR,,0.05,WeatherDisplay:10.37,2013-04-14 01:51:00,
2013-04-13 21:54:00,51.1,37.2,30.01,North,0,0.0,0.2,59,0.00,CLR,,0.05,WeatherDisplay:10.37,2013-04-14 01:54:00,
2013-04-13 21:57:00,51.1,37.2,30.01,North,0,0.0,0.2,59,0.00,CLR,,0.05,WeatherDisplay:10.37,2013-04-14 01:57:00,
2013-04-13 21:59:00,51.1,37.2,30.01,North,0,0.2,0.2,59,0.00,CLR,,0.05,WeatherDisplay:10.37,2013-04-14 01:59:00,
2013-04-13 22:02:00,50.4,37.0,30.02,ESE,112,0.0,0.0,60,0.00,CLR,,0.05,WeatherDisplay:10.37,2013-04-14 02:02:00,
2013-04-13 22:04:00,50.4,37.0,30.02,ESE,112,0.0,0.0,60,0.00,CLR,,0.05,WeatherDisplay:10.37,2013-04-14 02:04:00,
2013-04-13 22:07:00,50.4,37.0,30.02,ESE,112,0.0,0.0,60,0.00,CLR,,0.05,WeatherDisplay:10.37,2013-04-14 02:07:00,
2013-04-13 22:09:00,50.4,37.0,30.02,ESE,112,0.0,0.0,60,0.00,CLR,,0.05,WeatherDisplay:10.37,2013-04-14 02:09:00,
2013-04-13 22:12:00,50.4,37.0,30.02,ESE,112,0.0,0.0,60,0.00,CLR,,0.05,WeatherDisplay:10.37,2013-04-14 02:12:00,
2013-04-13 22:14:00,50.4,37.0,30.02,ESE,112,0.0,0.0,60,0.00,CLR,,0.05,WeatherDisplay:10.37,2013-04-14 02:14:00,
2013-04-13 22:15:00,50.4,37.0,30.02,ESE,112,0.0,0.0,60,0.00,CLR,CLR,0.05,WeatherDisplay:10.37,2013-04-14 02:15:00,
2013-04-13 22:17:00,50.4,37.0,30.02,ESE,112,0.0,0.0,60,0.00,CLR,,0.05,WeatherDisplay:10.37,2013-04-14 02:17:00,
2013-04-13 22:18:00,50.4,37.0,30.02,ESE,112,0.0,0.0,60,0.00,CLR,,0.05,WeatherDisplay:10.37,2013-04-14 02:18:00,
2013-04-13 22:19:00,50.4,37.0,30.02,ESE,112,0.0,0.0,60,0.00,CLR,,0.05,WeatherDisplay:10.37,2013-04-14 02:19:00,
2013-04-13 22:20:00,50.4,37.0,30.02,ESE,112,0.0,0.0,60,0.00,CLR,,0.05,WeatherDisplay:10.37,2013-04-14 02:20:00,
2013-04-13 22:22:00,50.4,37.0,30.02,ESE,112,0.0,0.0,60,0.00,CLR,,0.05,WeatherDisplay:10.37,2013-04-14 02:22:00,
2013-04-13 22:23:00,50.4,37.0,30.02,ESE,112,0.0,0.0,60,0.00,CLR,,0.05,WeatherDisplay:10.37,2013-04-14 02:23:00,
2013-04-13 22:24:00,50.4,37.0,30.02,ESE,112,0.0,0.0,60,0.00,CLR,,0.05,WeatherDisplay:10.37,2013-04-14 02:24:00,
2013-04-13 22:25:00,50.4,37.0,30.02,ESE,112,0.0,0.0,60,0.00,CLR,,0.05,WeatherDisplay:10.37,2013-04-14 02:25:00,
2013-04-13 22:28:00,50.4,37.0,30.02,ESE,112,0.0,0.0,60,0.00,CLR,,0.05,WeatherDisplay:10.37,2013-04-14 02:28:00,
2013-04-13 22:29:00,50.4,37.0,30.02,ESE,112,0.0,0.0,60,0.00,CLR,,0.05,WeatherDisplay:10.37,2013-04-14 02:29:00,
2013-04-13 22:30:00,50.4,37.0,30.02,ESE,112,0.0,0.0,60,0.00,CLR,,0.05,WeatherDisplay:10.37,2013-04-14 02:30:00,
2013-04-13 22:33:00,49.3,36.8,30.02,NE,45,0.0,0.0,62,0.00,CLR,,0.05,WeatherDisplay:10.37,2013-04-14 02:33:00,
2013-04-13 22:34:00,49.3,36.8,30.02,NE,45,0.0,0.0,62,0.00,CLR,,0.05,WeatherDisplay:10.37,2013-04-14 02:34:00,
2013-04-13 22:35:00,49.3,36.8,30.02,NE,45,0.0,0.0,62,0.00,CLR,,0.05,WeatherDisplay:10.37,2013-04-14 02:35:00,
2013-04-13 22:38:00,49.3,36.8,30.02,NE,45,0.0,0.0,62,0.00,CLR,,0.05,WeatherDisplay:10.37,2013-04-14 02:38:00,
2013-04-13 22:39:00,49.3,36.8,30.02,NE,45,0.0,0.0,62,0.00,CLR,,0.05,WeatherDisplay:10.37,2013-04-14 02:39:00,
2013-04-13 22:40:00,49.3,36.8,30.02,NE,45,0.0,0.0,62,0.00,CLR,,0.05,WeatherDisplay:10.37,2013-04-14 02:40:00,
2013-04-13 22:43:00,49.3,36.8,30.02,NE,45,0.0,0.0,62,0.00,CLR,,0.05,WeatherDisplay:10.37,2013-04-14 02:43:00,
2013-04-13 22:44:00,49.3,36.8,30.02,NE,45,0.0,0.0,62,0.00,CLR,,0.05,WeatherDisplay:10.37,2013-04-14 02:44:00,
2013-04-13 22:45:00,49.3,36.8,30.02,NE,45,0.0,0.0,62,0.00,CLR,,0.05,WeatherDisplay:10.37,2013-04-14 02:45:00,
2013-04-13 22:48:00,49.3,36.8,30.02,NE,45,0.0,0.0,62,0.00,CLR,,0.05,WeatherDisplay:10.37,2013-04-14 02:48:00,
2013-04-13 22:49:00,49.3,36.8,30.02,NE,45,0.0,0.0,62,0.00,CLR,,0.05,WeatherDisplay:10.37,2013-04-14 02:49:00,
2013-04-13 22:50:00,49.3,36.8,30.02,NE,45,0.0,0.0,62,0.00,CLR,,0.05,WeatherDisplay:10.37,2013-04-14 02:50:00,
2013-04-13 22:53:00,49.3,36.8,30.02,NE,45,0.0,0.0,62,0.00,CLR,,0.05,WeatherDisplay:10.37,2013-04-14 02:53:00,
2013-04-13 22:54:00,49.3,36.8,30.02,NE,45,0.0,0.0,62,0.00,CLR,,0.05,WeatherDisplay:10.37,2013-04-14 02:54:00,
2013-04-13 22:55:00,49.3,36.8,30.02,NE,45,0.0,0.0,62,0.00,CLR,,0.05,WeatherDisplay:10.37,2013-04-14 02:55:00,
2013-04-13 22:59:00,49.3,36.8,30.02,NE,45,0.0,0.0,62,0.00,CLR,,0.05,WeatherDisplay:10.37,2013-04-14 02:59:00,
2013-04-13 23:00:00,48.6,36.1,30.01,West,270,0.0,0.0,62,0.00,CLR,,0.05,WeatherDisplay:10.37,2013-04-14 03:00:00,
2013-04-13 23:04:00,48.6,36.1,30.01,West,270,0.0,0.0,62,0.00,CLR,,0.05,WeatherDisplay:10.37,2013-04-14 03:04:00,
2013-04-13 23:06:00,48.6,36.1,30.01,West,270,0.0,0.0,62,0.00,CLR,,0.05,WeatherDisplay:10.37,2013-04-14 03:06:00,
2013-04-13 23:09:00,48.6,36.1,30.01,West,270,0.0,0.0,62,0.00,CLR,,0.05,WeatherDisplay:10.37,2013-04-14 03:09:00,
2013-04-13 23:10:00,48.6,36.1,30.01,West,270,0.0,0.0,62,0.00,CLR,,0.05,WeatherDisplay:10.37,2013-04-14 03:10:00,
2013-04-13 23:11:00,48.6,36.1,30.01,West,270,0.0,0.0,62,0.00,CLR,,0.05,WeatherDisplay:10.37,2013-04-14 03:11:00,
2013-04-13 23:14:00,48.6,36.1,30.01,West,270,0.0,0.0,62,0.00,CLR,,0.05,WeatherDisplay:10.37,2013-04-14 03:14:00,
2013-04-13 23:15:00,48.6,36.1,30.01,West,270,0.0,0.0,62,0.00,CLR,,0.05,WeatherDisplay:10.37,2013-04-14 03:15:00,
2013-04-13 23:16:00,48.6,36.1,30.01,West,270,0.0,0.0,62,0.00,CLR,,0.05,WeatherDisplay:10.37,2013-04-14 03:16:00,
2013-04-13 23:19:00,48.6,36.1,30.01,West,270,0.0,0.0,62,0.00,CLR,,0.05,WeatherDisplay:10.37,2013-04-14 03:19:00,
2013-04-13 23:20:00,48.6,36.1,30.01,West,270,0.0,0.0,62,0.00,CLR,,0.05,WeatherDisplay:10.37,2013-04-14 03:20:00,
2013-04-13 23:22:00,48.6,36.1,30.01,West,270,0.0,0.0,62,0.00,CLR,,0.05,WeatherDisplay:10.37,2013-04-14 03:22:00,
2013-04-13 23:24:00,48.6,36.1,30.01,West,270,0.0,0.0,62,0.00,CLR,,0.05,WeatherDisplay:10.37,2013-04-14 03:24:00,
2013-04-13 23:25:00,48.6,36.1,30.01,West,270,0.0,0.0,62,0.00,CLR,,0.05,WeatherDisplay:10.37,2013-04-14 03:25:00,
2013-04-13 23:27:00,48.6,36.1,30.01,West,270,0.0,0.0,62,0.00,CLR,,0.05,WeatherDisplay:10.37,2013-04-14 03:27:00,
2013-04-13 23:29:00,48.6,36.1,30.01,West,270,0.0,0.0,62,0.00,CLR,,0.05,WeatherDisplay:10.37,2013-04-14 03:29:00,
2013-04-13 23:30:00,48.6,36.1,30.01,West,270,0.0,0.0,62,0.00,CLR,,0.05,WeatherDisplay:10.37,2013-04-14 03:30:00,
2013-04-13 23:32:00,47.8,35.8,30.01,West,270,0.0,0.0,63,0.00,CLR,,0.05,WeatherDisplay:10.37,2013-04-14 03:32:00,
2013-04-13 23:34:00,47.8,35.8,30.01,West,270,0.0,0.0,63,0.00,CLR,,0.05,WeatherDisplay:10.37,2013-04-14 03:34:00,
2013-04-13 23:35:00,47.8,35.8,30.01,West,270,0.0,0.0,63,0.00,CLR,,0.05,WeatherDisplay:10.37,2013-04-14 03:35:00,
2013-04-13 23:38:00,47.8,35.8,30.01,West,270,0.0,0.0,63,0.00,CLR,,0.05,WeatherDisplay:10.37,2013-04-14 03:38:00,
2013-04-13 23:39:00,47.8,35.8,30.01,West,270,0.0,0.0,63,0.00,CLR,,0.05,WeatherDisplay:10.37,2013-04-14 03:39:00,
2013-04-13 23:40:00,47.8,35.8,30.01,West,270,0.0,0.0,63,0.00,CLR,,0.05,WeatherDisplay:10.37,2013-04-14 03:40:00,
2013-04-13 23:43:00,47.8,35.8,30.01,West,270,0.0,0.0,63,0.00,CLR,,0.05,WeatherDisplay:10.37,2013-04-14 03:43:00,
2013-04-13 23:44:00,47.8,35.8,30.01,West,270,0.0,0.0,63,0.00,CLR,,0.05,WeatherDisplay:10.37,2013-04-14 03:44:00,
2013-04-13 23:45:00,47.8,35.8,30.01,West,270,0.0,0.0,63,0.00,CLR,,0.05,WeatherDisplay:10.37,2013-04-14 03:45:00,
2013-04-13 23:48:00,47.8,35.8,30.01,West,270,0.0,0.0,63,0.00,CLR,,0.05,WeatherDisplay:10.37,2013-04-14 03:48:00,
2013-04-13 23:49:00,47.8,35.8,30.01,West,270,0.0,0.0,63,0.00,CLR,CLR,0.05,WeatherDisplay:10.37,2013-04-14 03:49:00,
2013-04-13 23:51:00,47.8,35.8,30.01,West,270,0.0,0.0,63,0.00,CLR,,0.05,WeatherDisplay:10.37,2013-04-14 03:51:00,
2013-04-13 23:52:00,47.8,35.8,30.01,West,270,0.0,0.0,63,0.00,CLR,,0.05,WeatherDisplay:10.37,2013-04-14 03:52:00,
2013-04-13 23:53:00,47.8,35.8,30.01,West,270,0.0,0.0,63,0.00,CLR,,0.05,WeatherDisplay:10.37,2013-04-14 03:53:00,
2013-04-13 23:55:00,47.8,35.8,30.01,West,270,0.0,0.0,63,0.00,CLR,,0.05,WeatherDisplay:10.37,2013-04-14 03:55:00,
2013-04-13 23:56:00,47.8,35.8,30.01,West,270,0.0,0.0,63,0.00,CLR,,0.05,WeatherDisplay:10.37,2013-04-14 03:56:00,
2013-04-13 23:57:00,47.8,35.8,30.01,West,270,0.0,0.0,63,0.00,CLR,,0.05,WeatherDisplay:10.37,2013-04-14 03:57:00,
2013-04-13 23:58:00,47.8,35.8,30.01,West,270,0.0,0.0,63,0.00,CLR,,0.05,WeatherDisplay:10.37,2013-04-14 03:58:00,